Observation data for Umbarger on 01/19/2019      Previous  Date  Next       Current Mesonet Observations  Soil Data  Daily Summary Page  Observations in Plain Language
KUM1 190600Z 35023KT M01/M02 A3008 RMK A01 T10081023  RH  090%=      5-min Rain = 0
KUM1 190601Z 35022KT M01/M02 A3008 RMK A01 T10081023  RH  090%=      5-min Rain = 0
KUM1 190602Z 35023KT M01/M02 A3008 RMK A01 T10081023  RH  089%=      5-min Rain = 0
KUM1 190603Z 35022G27KT M01/M02 A3009 RMK A01 T10081023  RH  090%=      5-min Rain = 0
KUM1 190604Z 35021KT M01/M02 A3009 RMK A01 T10081023  RH  090%=      5-min Rain = 0
KUM1 190605Z 34022KT M01/M02 A3008 RMK A01 T10081022  RH  090%=      5-min Rain = 0
KUM1 190606Z 34021KT M01/M02 A3008 RMK A01 T10081022  RH  090%=      5-min Rain = 0
KUM1 190607Z 34021G29KT M01/M02 A3009 RMK A01 T10081022  RH  090%=      5-min Rain = 0
KUM1 190608Z 34024KT M01/M02 A3008 RMK A01 T10081023  RH  090%=      5-min Rain = 0
KUM1 190609Z 35025G30KT M01/M02 A3009 RMK A01 T10081023  RH  090%=      5-min Rain = 0
KUM1 190610Z 35029KT M01/M02 A3009 RMK A01 T10091024  RH  090%=      5-min Rain = 0
KUM1 190611Z 35028KT M01/M02 A3009 RMK A01 T10101024  RH  090%=      5-min Rain = 0
KUM1 190612Z 35028G33KT M01/M03 A3009 RMK A01 T10101025  RH  090%=      5-min Rain = 0
KUM1 190613Z 35028KT M01/M03 A3009 RMK A01 T10111025  RH  090%=      5-min Rain = 0
KUM1 190614Z 35024KT M01/M03 A3009 RMK A01 T10111026  RH  090%=      5-min Rain = 0
KUM1 190615Z 35025G30KT M01/M03 A3009 RMK A01 T10121026  RH  090%=      5-min Rain = 0
KUM1 190616Z 35023KT M01/M03 A3009 RMK A01 T10111026  RH  090%=      5-min Rain = 0
KUM1 190617Z 35022KT M01/M03 A3009 RMK A01 T10121026  RH  090%=      5-min Rain = 0
KUM1 190618Z 35023G28KT M01/M03 A3009 RMK A01 T10121026  RH  090%=      5-min Rain = 0
KUM1 190619Z 35023G28KT M01/M03 A3009 RMK A01 T10121027  RH  090%=      5-min Rain = 0
KUM1 190620Z 35021KT M01/M03 A3009 RMK A01 T10121027  RH  090%=      5-min Rain = 0
KUM1 190621Z 35021KT M01/M03 A3009 RMK A01 T10121027  RH  090%=      5-min Rain = 0
KUM1 190622Z 35022KT M01/M03 A3009 RMK A01 T10131028  RH  090%=      5-min Rain = 0
KUM1 190623Z 35019KT M01/M03 A3009 RMK A01 T10131027  RH  090%=      5-min Rain = 0
KUM1 190624Z 35019KT M01/M03 A3009 RMK A01 T10121027  RH  090%=      5-min Rain = 0
KUM1 190625Z 34019KT M01/M03 A3009 RMK A01 T10131027  RH  090%=      5-min Rain = 0
KUM1 190626Z 34017KT M01/M03 A3009 RMK A01 T10131027  RH  090%=      5-min Rain = 0
KUM1 190627Z 34020KT M01/M03 A3009 RMK A01 T10131027  RH  090%=      5-min Rain = 0
KUM1 190628Z 34019KT M01/M03 A3009 RMK A01 T10121027  RH  090%=      5-min Rain = 0
KUM1 190629Z 34019G25KT M01/M03 A301 RMK A01 T10121027  RH  089%=      5-min Rain = 0
KUM1 190630Z 34022KT M01/M03 A3009 RMK A01 T10121027  RH  089%=      5-min Rain = 0
KUM1 190631Z 34021KT M01/M03 A301 RMK A01 T10121028  RH  089%=      5-min Rain = 0
KUM1 190632Z 34025KT M01/M03 A301 RMK A01 T10131028  RH  089%=      5-min Rain = 0
KUM1 190633Z 35024KT M01/M03 A301 RMK A01 T10141029  RH  089%=      5-min Rain = 0
KUM1 190634Z 34020KT M01/M03 A301 RMK A01 T10141030  RH  089%=      5-min Rain = 0
KUM1 190635Z 35024G29KT M02/M03 A301 RMK A01 T10151030  RH  090%=      5-min Rain = 0
KUM1 190636Z 34024KT M02/M03 A301 RMK A01 T10151030  RH  089%=      5-min Rain = 0
KUM1 190637Z 34023KT M02/M03 A301 RMK A01 T10151031  RH  089%=      5-min Rain = 0
KUM1 190638Z 35022KT M02/M03 A301 RMK A01 T10161031  RH  089%=      5-min Rain = 0
KUM1 190639Z 35022KT M02/M03 A301 RMK A01 T10161031  RH  090%=      5-min Rain = 0
KUM1 190640Z 35021KT M02/M03 A301 RMK A01 T10161031  RH  090%=      5-min Rain = 0
KUM1 190641Z 35021KT M02/M03 A301 RMK A01 T10161031  RH  090%=      5-min Rain = 0
KUM1 190642Z 35021KT M02/M03 A301 RMK A01 T10161031  RH  090%=      5-min Rain = 0
KUM1 190643Z 34021KT M02/M03 A301 RMK A01 T10161030  RH  090%=      5-min Rain = 0
KUM1 190644Z 34023KT M02/M03 A301 RMK A01 T10151030  RH  090%=      5-min Rain = 0
KUM1 190645Z 34021KT M01/M03 A301 RMK A01 T10141029  RH  090%=      5-min Rain = 0
KUM1 190646Z 34021G33KT M01/M03 A301 RMK A01 T10141029  RH  089%=      5-min Rain = 0
KUM1 190647Z 35027KT M01/M03 A301 RMK A01 T10141029  RH  089%=      5-min Rain = 0
KUM1 190648Z 34026KT M01/M03 A301 RMK A01 T10141029  RH  089%=      5-min Rain = 0
KUM1 190649Z 34024G29KT M01/M03 A301 RMK A01 T10131030  RH  089%=      5-min Rain = 0
KUM1 190650Z 35024KT M01/M03 A301 RMK A01 T10141030  RH  089%=      5-min Rain = 0
KUM1 190651Z 35025KT M01/M03 A301 RMK A01 T10141031  RH  089%=      5-min Rain = 0
KUM1 190652Z 35026KT M01/M03 A301 RMK A01 T10141031  RH  088%=      5-min Rain = 0
KUM1 190653Z 34025KT M01/M03 A301 RMK A01 T10141031  RH  088%=      5-min Rain = 0
KUM1 190654Z 35025G30KT M01/M03 A301 RMK A01 T10141031  RH  088%=      5-min Rain = 0
KUM1 190655Z 35023KT M02/M03 A301 RMK A01 T10151031  RH  089%=      5-min Rain = 0
KUM1 190656Z 35027G32KT M02/M03 A301 RMK A01 T10161032  RH  089%=      5-min Rain = 0
KUM1 190657Z 34025G30KT M02/M03 A301 RMK A01 T10161031  RH  089%=      5-min Rain = 0
KUM1 190658Z 34025KT M02/M03 A301 RMK A01 T10161032  RH  089%=      5-min Rain = 0
KUM1 190659Z 35025KT M02/M03 A301 RMK A01 T10161032  RH  089%=      5-min Rain = 0
KUM1 190700Z 35025G30KT M02/M03 A301 RMK A01 T10161032  RH  089%=      5-min Rain = 0
KUM1 190701Z 35026KT M02/M03 A301 RMK A01 T10161032  RH  089%=      5-min Rain = 0
KUM1 190702Z 35025KT M02/M03 A301 RMK A01 T10161033  RH  088%=      5-min Rain = 0
KUM1 190703Z 35022G28KT M02/M03 A301 RMK A01 T10161033  RH  088%=      5-min Rain = 0
KUM1 190704Z 35024KT M02/M03 A301 RMK A01 T10171033  RH  089%=      5-min Rain = 0
KUM1 190705Z 35021G26KT M02/M03 A301 RMK A01 T10171034  RH  089%=      5-min Rain = 0
KUM1 190706Z 35023KT M02/M03 A301 RMK A01 T10171033  RH  089%=      5-min Rain = 0
KUM1 190707Z 35021KT M02/M03 A3011 RMK A01 T10171034  RH  088%=      5-min Rain = 0
KUM1 190708Z 34023G29KT M02/M03 A301 RMK A01 T10181034  RH  088%=      5-min Rain = 0
KUM1 190709Z 35025KT M02/M04 A3011 RMK A01 T10181035  RH  088%=      5-min Rain = 0
KUM1 190710Z 34024KT M02/M03 A3011 RMK A01 T10181034  RH  088%=      5-min Rain = 0
KUM1 190711Z 34023KT M02/M04 A3011 RMK A01 T10181035  RH  088%=      5-min Rain = 0
KUM1 190712Z 35023KT M02/M04 A3011 RMK A01 T10181035  RH  088%=      5-min Rain = 0
KUM1 190713Z 34024KT M02/M04 A3011 RMK A01 T10191036  RH  088%=      5-min Rain = 0
KUM1 190714Z 34025KT M02/M04 A3011 RMK A01 T10191036  RH  088%=      5-min Rain = 0
KUM1 190715Z 34023KT M02/M04 A3011 RMK A01 T10191036  RH  088%=      5-min Rain = 0
KUM1 190716Z 34023KT M02/M04 A301 RMK A01 T10201037  RH  088%=      5-min Rain = 0
KUM1 190717Z 34023KT M02/M04 A301 RMK A01 T10201037  RH  088%=      5-min Rain = 0
KUM1 190718Z 34021KT M02/M04 A3011 RMK A01 T10201037  RH  088%=      5-min Rain = 0
KUM1 190719Z 34024KT M02/M04 A301 RMK A01 T10201037  RH  088%=      5-min Rain = 0
KUM1 190720Z 34023G28KT M02/M04 A3011 RMK A01 T10201037  RH  088%=      5-min Rain = 0
KUM1 190721Z 34023KT M02/M04 A301 RMK A01 T10201037  RH  088%=      5-min Rain = 0
KUM1 190722Z 34026KT M02/M04 A301 RMK A01 T10211038  RH  088%=      5-min Rain = 0
KUM1 190723Z 34025KT M02/M04 A301 RMK A01 T10211039  RH  088%=      5-min Rain = 0
KUM1 190724Z 35026KT M02/M04 A301 RMK A01 T10221039  RH  088%=      5-min Rain = 0
KUM1 190725Z 34023G29KT M02/M04 A301 RMK A01 T10231040  RH  088%=      5-min Rain = 0
KUM1 190726Z 35025KT M02/M04 A301 RMK A01 T10231040  RH  088%=      5-min Rain = 0
KUM1 190727Z 35026KT M02/M04 A301 RMK A01 T10231041  RH  088%=      5-min Rain = 0
KUM1 190728Z 35029KT M02/M04 A301 RMK A01 T10241041  RH  088%=      5-min Rain = 0
KUM1 190729Z 35028G35KT M02/M04 A301 RMK A01 T10241041  RH  088%=      5-min Rain = 0
KUM1 190730Z 35027KT M02/M04 A301 RMK A01 T10241041  RH  088%=      5-min Rain = 0
KUM1 190731Z 35026G31KT M02/M04 A301 RMK A01 T10241041  RH  088%=      5-min Rain = 0
KUM1 190732Z 35026G32KT M02/M04 A301 RMK A01 T10241042  RH  088%=      5-min Rain = 0
KUM1 190733Z 35029G35KT M03/M04 A301 RMK A01 T10251042  RH  088%=      5-min Rain = 0
KUM1 190734Z 35028KT M03/M04 A301 RMK A01 T10251042  RH  088%=      5-min Rain = 0
KUM1 190735Z 34026G31KT M02/M04 A301 RMK A01 T10241041  RH  088%=      5-min Rain = 0
KUM1 190736Z 35028G33KT M03/M04 A3011 RMK A01 T10251042  RH  088%=      5-min Rain = 0
KUM1 190737Z 35030KT M03/M04 A301 RMK A01 T10251042  RH  088%=      5-min Rain = 0
KUM1 190738Z 35027KT M03/M04 A301 RMK A01 T10251041  RH  089%=      5-min Rain = 0
KUM1 190739Z 35026KT M03/M04 A301 RMK A01 T10251042  RH  088%=      5-min Rain = 0
KUM1 190740Z 35025KT M03/M04 A301 RMK A01 T10251042  RH  088%=      5-min Rain = 0
KUM1 190741Z 35025KT M03/M04 A301 RMK A01 T10251042  RH  088%=      5-min Rain = 0
KUM1 190742Z 35024G29KT M03/M04 A301 RMK A01 T10261042  RH  088%=      5-min Rain = 0
KUM1 190743Z 35025G31KT M03/M04 A301 RMK A01 T10271043  RH  089%=      5-min Rain = 0
KUM1 190744Z 35027KT M03/M04 A301 RMK A01 T10271043  RH  089%=      5-min Rain = 0
KUM1 190745Z 35026KT M03/M04 A301 RMK A01 T10261043  RH  088%=      5-min Rain = 0
KUM1 190746Z 35025KT M03/M04 A301 RMK A01 T10261043  RH  088%=      5-min Rain = 0
KUM1 190747Z 35026KT M03/M04 A301 RMK A01 T10271044  RH  088%=      5-min Rain = 0
KUM1 190748Z 35024G29KT M03/M04 A301 RMK A01 T10271044  RH  088%=      5-min Rain = 0
KUM1 190749Z 35023G29KT M03/M04 A301 RMK A01 T10271044  RH  088%=      5-min Rain = 0
KUM1 190750Z 35024KT M03/M04 A301 RMK A01 T10271044  RH  088%=      5-min Rain = 0
KUM1 190751Z 35025KT M03/M05 A3011 RMK A01 T10281045  RH  088%=      5-min Rain = 0
KUM1 190752Z 35026KT M03/M05 A3011 RMK A01 T10281045  RH  088%=      5-min Rain = 0
KUM1 190753Z 35027KT M03/M05 A3011 RMK A01 T10281045  RH  088%=      5-min Rain = 0
KUM1 190754Z 35026KT M03/M05 A3011 RMK A01 T10281045  RH  088%=      5-min Rain = 0
KUM1 190755Z 35024G29KT M03/M05 A3011 RMK A01 T10281045  RH  088%=      5-min Rain = 0
KUM1 190756Z 35027KT M03/M05 A3011 RMK A01 T10291045  RH  088%=      5-min Rain = 0
KUM1 190757Z 35028G33KT M03/M05 A3011 RMK A01 T10291045  RH  088%=      5-min Rain = 0
KUM1 190758Z 35026KT M03/M05 A3011 RMK A01 T10291045  RH  088%=      5-min Rain = 0
KUM1 190759Z 35029KT M03/M05 A3011 RMK A01 T10281045  RH  088%=      5-min Rain = 0
KUM1 190800Z 35027KT M03/M05 A3011 RMK A01 T10281045  RH  088%=      5-min Rain = 0
KUM1 190801Z 35024KT M03/M05 A3011 RMK A01 T10281045  RH  088%=      5-min Rain = 0
KUM1 190802Z 35025KT M03/M05 A3011 RMK A01 T10291045  RH  089%=      5-min Rain = 0
KUM1 190803Z 35025KT M03/M05 A3011 RMK A01 T10291045  RH  089%=      5-min Rain = 0
KUM1 190804Z 35024KT M03/M05 A3011 RMK A01 T10291045  RH  089%=      5-min Rain = 0
KUM1 190805Z 35025KT M03/M05 A3011 RMK A01 T10291045  RH  089%=      5-min Rain = 0
KUM1 190806Z 36025KT M03/M05 A3011 RMK A01 T10291045  RH  089%=      5-min Rain = 0
KUM1 190807Z 35025KT M03/M05 A3011 RMK A01 T10291045  RH  089%=      5-min Rain = 0
KUM1 190808Z 35024KT M03/M05 A3011 RMK A01 T10291045  RH  089%=      5-min Rain = 0
KUM1 190809Z 35025KT M03/M05 A3011 RMK A01 T10291045  RH  089%=      5-min Rain = 0
KUM1 190810Z 35023KT M03/M05 A3011 RMK A01 T10291045  RH  089%=      5-min Rain = 0
KUM1 190811Z 35023KT M03/M05 A3012 RMK A01 T10291045  RH  089%=      5-min Rain = 0
KUM1 190812Z 35023KT M03/M05 A3011 RMK A01 T10291045  RH  089%=      5-min Rain = 0
KUM1 190813Z 35024KT M03/M05 A3011 RMK A01 T10291045  RH  089%=      5-min Rain = 0
KUM1 190814Z 35025KT M03/M05 A3011 RMK A01 T10301045  RH  089%=      5-min Rain = 0
KUM1 190815Z 35023KT M03/M05 A3011 RMK A01 T10301045  RH  089%=      5-min Rain = 0
KUM1 190816Z 35022KT M03/M05 A3011 RMK A01 T10291045  RH  089%=      5-min Rain = 0
KUM1 190817Z 35024KT M03/M05 A3011 RMK A01 T10301046  RH  089%=      5-min Rain = 0
KUM1 190818Z 34021KT M03/M05 A3012 RMK A01 T10301045  RH  089%=      5-min Rain = 0
KUM1 190819Z 34022KT M03/M05 A3012 RMK A01 T10301045  RH  089%=      5-min Rain = 0
KUM1 190820Z 34023KT M03/M05 A3012 RMK A01 T10301045  RH  089%=      5-min Rain = 0
KUM1 190821Z 34024KT M03/M05 A3012 RMK A01 T10301045  RH  089%=      5-min Rain = 0
KUM1 190822Z 34025G30KT M03/M05 A3012 RMK A01 T10291045  RH  089%=      5-min Rain = 0
KUM1 190823Z 34025KT M03/M04 A3012 RMK A01 T10291044  RH  089%=      5-min Rain = 0
KUM1 190824Z 34023KT M03/M04 A3012 RMK A01 T10281044  RH  089%=      5-min Rain = 0
KUM1 190825Z 34023KT M03/M05 A3012 RMK A01 T10291045  RH  088%=      5-min Rain = 0
KUM1 190826Z 34024KT M03/M05 A3012 RMK A01 T10281045  RH  088%=      5-min Rain = 0
KUM1 190827Z 34024KT M03/M05 A3012 RMK A01 T10291045  RH  088%=      5-min Rain = 0
KUM1 190828Z 34022KT M03/M05 A3012 RMK A01 T10291046  RH  088%=      5-min Rain = 0
KUM1 190829Z 34022G27KT M03/M05 A3012 RMK A01 T10281045  RH  088%=      5-min Rain = 0
KUM1 190830Z 34024KT M03/M05 A3012 RMK A01 T10291045  RH  088%=      5-min Rain = 0
KUM1 190831Z 34022KT M03/M05 A3012 RMK A01 T10291045  RH  088%=      5-min Rain = 0
KUM1 190832Z 34021KT M03/M05 A3012 RMK A01 T10281045  RH  088%=      5-min Rain = 0
KUM1 190833Z 34020KT M03/M05 A3012 RMK A01 T10291046  RH  088%=      5-min Rain = 0
KUM1 190834Z 34023G28KT M03/M05 A3012 RMK A01 T10291046  RH  088%=      5-min Rain = 0
KUM1 190835Z 34023KT M03/M05 A3012 RMK A01 T10291046  RH  088%=      5-min Rain = 0
KUM1 190836Z 34026G31KT M03/M05 A3012 RMK A01 T10291046  RH  088%=      5-min Rain = 0
KUM1 190837Z 34025KT M03/M05 A3012 RMK A01 T10291046  RH  088%=      5-min Rain = 0
KUM1 190838Z 35026KT M03/M05 A3012 RMK A01 T10291045  RH  088%=      5-min Rain = 0
KUM1 190839Z 34024KT M03/M05 A3013 RMK A01 T10281045  RH  088%=      5-min Rain = 0
KUM1 190840Z 34023KT M03/M05 A3013 RMK A01 T10281045  RH  088%=      5-min Rain = 0
KUM1 190841Z 35023KT M03/M05 A3013 RMK A01 T10291045  RH  088%=      5-min Rain = 0
KUM1 190842Z 35023KT M03/M05 A3013 RMK A01 T10291046  RH  088%=      5-min Rain = 0
KUM1 190843Z 35023KT M03/M05 A3013 RMK A01 T10291045  RH  088%=      5-min Rain = 0
KUM1 190844Z 35022KT M03/M05 A3013 RMK A01 T10291045  RH  088%=      5-min Rain = 0
KUM1 190845Z 35022KT M03/M05 A3013 RMK A01 T10291046  RH  088%=      5-min Rain = 0
KUM1 190846Z 35020KT M03/M05 A3013 RMK A01 T10291046  RH  088%=      5-min Rain = 0
KUM1 190847Z 35021KT M03/M05 A3013 RMK A01 T10301047  RH  088%=      5-min Rain = 0
KUM1 190848Z 34022KT M03/M05 A3013 RMK A01 T10301047  RH  088%=      5-min Rain = 0
KUM1 190849Z 35021KT M03/M05 A3014 RMK A01 T10301047  RH  088%=      5-min Rain = 0
KUM1 190850Z 35020KT M03/M05 A3014 RMK A01 T10301047  RH  088%=      5-min Rain = 0
KUM1 190851Z 35019KT M03/M05 A3014 RMK A01 T10301047  RH  088%=      5-min Rain = 0
KUM1 190852Z 35019KT M03/M05 A3014 RMK A01 T10301047  RH  088%=      5-min Rain = 0
KUM1 190853Z 35018KT M03/M05 A3014 RMK A01 T10311048  RH  088%=      5-min Rain = 0
KUM1 190854Z 35019KT M03/M05 A3014 RMK A01 T10311048  RH  088%=      5-min Rain = 0
KUM1 190855Z 34019KT M03/M05 A3014 RMK A01 T10311048  RH  088%=      5-min Rain = 0
KUM1 190856Z 35019KT M03/M05 A3014 RMK A01 T10311048  RH  088%=      5-min Rain = 0
KUM1 190857Z 34017KT M03/M05 A3014 RMK A01 T10311048  RH  088%=      5-min Rain = 0
KUM1 190858Z 34018KT M03/M05 A3014 RMK A01 T10311048  RH  088%=      5-min Rain = 0
KUM1 190859Z 35019KT M03/M05 A3014 RMK A01 T10311048  RH  088%=      5-min Rain = 0
KUM1 190900Z 35019KT M03/M05 A3014 RMK A01 T10311048  RH  088%=      5-min Rain = 0
KUM1 190901Z 35017KT M03/M05 A3014 RMK A01 T10311048  RH  088%=      5-min Rain = 0
KUM1 190902Z 35018KT M03/M05 A3014 RMK A01 T10311048  RH  088%=      5-min Rain = 0
KUM1 190903Z 35017KT M03/M05 A3014 RMK A01 T10311048  RH  088%=      5-min Rain = 0
KUM1 190904Z 35018KT M03/M05 A3014 RMK A01 T10311048  RH  088%=      5-min Rain = 0
KUM1 190905Z 35019KT M03/M05 A3014 RMK A01 T10311048  RH  088%=      5-min Rain = 0
KUM1 190906Z 35017KT M03/M05 A3015 RMK A01 T10311048  RH  088%=      5-min Rain = 0
KUM1 190907Z 35018KT M03/M05 A3015 RMK A01 T10311048  RH  088%=      5-min Rain = 0
KUM1 190908Z 35017KT M03/M05 A3015 RMK A01 T10311048  RH  088%=      5-min Rain = 0
KUM1 190909Z 35018KT M03/M05 A3015 RMK A01 T10311048  RH  088%=      5-min Rain = 0
KUM1 190910Z 35016KT M03/M05 A3015 RMK A01 T10311048  RH  089%=      5-min Rain = 0
KUM1 190911Z 35016KT M03/M05 A3015 RMK A01 T10311048  RH  088%=      5-min Rain = 0
KUM1 190912Z 35016KT M03/M05 A3015 RMK A01 T10311048  RH  088%=      5-min Rain = 0
KUM1 190913Z 35016KT M03/M05 A3015 RMK A01 T10311048  RH  089%=      5-min Rain = 0
KUM1 190914Z 35016KT M03/M05 A3015 RMK A01 T10311047  RH  089%=      5-min Rain = 0
KUM1 190915Z 35014KT M03/M05 A3015 RMK A01 T10311048  RH  089%=      5-min Rain = 0
KUM1 190916Z 35015KT M03/M05 A3015 RMK A01 T10321048  RH  088%=      5-min Rain = 0
KUM1 190917Z 35014KT M03/M05 A3015 RMK A01 T10321048  RH  089%=      5-min Rain = 0
KUM1 190918Z 35014KT M03/M05 A3015 RMK A01 T10321048  RH  089%=      5-min Rain = 0
KUM1 190919Z 35016KT M03/M05 A3016 RMK A01 T10321048  RH  089%=      5-min Rain = 0
KUM1 190920Z 35014KT M03/M05 A3016 RMK A01 T10311047  RH  089%=      5-min Rain = 0
KUM1 190921Z 35014KT M03/M05 A3016 RMK A01 T10311047  RH  089%=      5-min Rain = 0
KUM1 190922Z 34013KT M03/M05 A3016 RMK A01 T10321048  RH  088%=      5-min Rain = 0
KUM1 190923Z 35016KT M03/M05 A3016 RMK A01 T10321048  RH  089%=      5-min Rain = 0
KUM1 190924Z 35014KT M03/M05 A3016 RMK A01 T10311048  RH  089%=      5-min Rain = 0
KUM1 190925Z 35015KT M03/M05 A3016 RMK A01 T10311048  RH  088%=      5-min Rain = 0
KUM1 190926Z 35015KT M03/M05 A3016 RMK A01 T10311048  RH  088%=      5-min Rain = 0
KUM1 190927Z 35015KT M03/M05 A3016 RMK A01 T10311048  RH  088%=      5-min Rain = 0
KUM1 190928Z 34015KT M03/M05 A3016 RMK A01 T10311048  RH  088%=      5-min Rain = 0
KUM1 190929Z 35013KT M03/M05 A3016 RMK A01 T10311048  RH  088%=      5-min Rain = 0
KUM1 190930Z 35014KT M03/M05 A3016 RMK A01 T10321049  RH  088%=      5-min Rain = 0
KUM1 190931Z 35015KT M03/M05 A3016 RMK A01 T10321049  RH  088%=      5-min Rain = 0
KUM1 190932Z 35015KT M03/M05 A3016 RMK A01 T10321049  RH  088%=      5-min Rain = 0
KUM1 190933Z 35014KT M03/M05 A3016 RMK A01 T10321049  RH  088%=      5-min Rain = 0
KUM1 190934Z 35012KT M03/M05 A3016 RMK A01 T10321049  RH  088%=      5-min Rain = 0
KUM1 190935Z 35015KT M03/M05 A3016 RMK A01 T10331050  RH  088%=      5-min Rain = 0
KUM1 190936Z 34014KT M03/M05 A3016 RMK A01 T10331049  RH  088%=      5-min Rain = 0
KUM1 190937Z 34015KT M03/M05 A3016 RMK A01 T10321049  RH  088%=      5-min Rain = 0
KUM1 190938Z 35013KT M03/M05 A3016 RMK A01 T10321049  RH  088%=      5-min Rain = 0
KUM1 190939Z 34014KT M03/M05 A3016 RMK A01 T10321049  RH  088%=      5-min Rain = 0
KUM1 190940Z 34013KT M03/M05 A3016 RMK A01 T10321049  RH  088%=      5-min Rain = 0
KUM1 190941Z 34013KT M03/M05 A3016 RMK A01 T10321049  RH  088%=      5-min Rain = 0
KUM1 190942Z 35014KT M03/M05 A3016 RMK A01 T10321049  RH  088%=      5-min Rain = 0
KUM1 190943Z 34014KT M03/M05 A3017 RMK A01 T10321049  RH  088%=      5-min Rain = 0
KUM1 190944Z 34014KT M03/M05 A3016 RMK A01 T10321049  RH  088%=      5-min Rain = 0
KUM1 190945Z 34013KT M03/M05 A3017 RMK A01 T10321049  RH  088%=      5-min Rain = 0
KUM1 190946Z 34014KT M03/M05 A3017 RMK A01 T10321049  RH  088%=      5-min Rain = 0
KUM1 190947Z 34014KT M03/M05 A3017 RMK A01 T10321049  RH  088%=      5-min Rain = 0
KUM1 190948Z 34014KT M03/M05 A3017 RMK A01 T10321049  RH  088%=      5-min Rain = 0
KUM1 190949Z 35013KT M03/M05 A3017 RMK A01 T10321049  RH  088%=      5-min Rain = 0
KUM1 190950Z 34013KT M03/M05 A3017 RMK A01 T10321049  RH  088%=      5-min Rain = 0
KUM1 190951Z 35014KT M03/M05 A3017 RMK A01 T10321049  RH  088%=      5-min Rain = 0
KUM1 190952Z 35015KT M03/M05 A3017 RMK A01 T10321049  RH  088%=      5-min Rain = 0
KUM1 190953Z 35015KT M03/M05 A3017 RMK A01 T10321049  RH  088%=      5-min Rain = 0
KUM1 190954Z 35013KT M03/M05 A3017 RMK A01 T10311049  RH  088%=      5-min Rain = 0
KUM1 190955Z 35014KT M03/M05 A3017 RMK A01 T10311049  RH  088%=      5-min Rain = 0
KUM1 190956Z 35014KT M03/M05 A3017 RMK A01 T10311049  RH  088%=      5-min Rain = 0
KUM1 190957Z 34013KT M03/M05 A3017 RMK A01 T10311049  RH  087%=      5-min Rain = 0
KUM1 190958Z 35013KT M03/M05 A3017 RMK A01 T10321050  RH  087%=      5-min Rain = 0
KUM1 190959Z 35014KT M03/M05 A3017 RMK A01 T10331050  RH  087%=      5-min Rain = 0
KUM1 191000Z 35013KT M03/M05 A3017 RMK A01 T10331051  RH  088%=      5-min Rain = 0
KUM1 191001Z 35012KT M03/M05 A3017 RMK A01 T10331051  RH  088%=      5-min Rain = 0
KUM1 191002Z 35013KT M03/M05 A3017 RMK A01 T10341051  RH  088%=      5-min Rain = 0
KUM1 191003Z 35012KT M03/M05 A3017 RMK A01 T10331051  RH  088%=      5-min Rain = 0
KUM1 191004Z 35011KT M03/M05 A3017 RMK A01 T10341051  RH  088%=      5-min Rain = 0
KUM1 191005Z 35011KT M04/M05 A3017 RMK A01 T10351053  RH  088%=      5-min Rain = 0
KUM1 191006Z 34011KT M04/M05 A3017 RMK A01 T10361054  RH  088%=      5-min Rain = 0
KUM1 191007Z 35011KT M04/M05 A3017 RMK A01 T10361053  RH  088%=      5-min Rain = 0
KUM1 191008Z 34011KT M04/M05 A3017 RMK A01 T10361053  RH  088%=      5-min Rain = 0
KUM1 191009Z 34011KT M04/M05 A3017 RMK A01 T10361053  RH  088%=      5-min Rain = 0
KUM1 191010Z 34011KT M04/M05 A3017 RMK A01 T10371053  RH  088%=      5-min Rain = 0
KUM1 191011Z 34011KT M04/M05 A3017 RMK A01 T10371053  RH  089%=      5-min Rain = 0
KUM1 191012Z 34011KT M04/M05 A3017 RMK A01 T10371053  RH  089%=      5-min Rain = 0
KUM1 191013Z 34010KT M04/M05 A3017 RMK A01 T10371053  RH  089%=      5-min Rain = 0
KUM1 191014Z 34010KT M04/M05 A3017 RMK A01 T10371053  RH  089%=      5-min Rain = 0
KUM1 191015Z 34012KT M04/M05 A3017 RMK A01 T10381053  RH  089%=      5-min Rain = 0
KUM1 191016Z 34012KT M04/M05 A3017 RMK A01 T10371053  RH  089%=      5-min Rain = 0
KUM1 191017Z 34010KT M04/M05 A3017 RMK A01 T10371052  RH  089%=      5-min Rain = 0
KUM1 191018Z 34010KT M04/M05 A3017 RMK A01 T10381054  RH  089%=      5-min Rain = 0
KUM1 191019Z 34012KT M04/M05 A3017 RMK A01 T10381054  RH  089%=      5-min Rain = 0
KUM1 191020Z 34012KT M04/M05 A3017 RMK A01 T10391054  RH  089%=      5-min Rain = 0
KUM1 191021Z 34011KT M04/M05 A3017 RMK A01 T10391054  RH  089%=      5-min Rain = 0
KUM1 191022Z 34011KT M04/M05 A3017 RMK A01 T10391054  RH  089%=      5-min Rain = 0
KUM1 191023Z 33011KT M04/M05 A3017 RMK A01 T10391054  RH  089%=      5-min Rain = 0
KUM1 191024Z 33010KT M04/M06 A3017 RMK A01 T10391055  RH  089%=      5-min Rain = 0
KUM1 191025Z 33010KT M04/M06 A3017 RMK A01 T10401055  RH  089%=      5-min Rain = 0
KUM1 191026Z 33010KT M04/M06 A3017 RMK A01 T10401055  RH  089%=      5-min Rain = 0
KUM1 191027Z 33011KT M04/M06 A3017 RMK A01 T10411055  RH  090%=      5-min Rain = 0
KUM1 191028Z 33010KT M04/M06 A3017 RMK A01 T10411055  RH  090%=      5-min Rain = 0
KUM1 191029Z 33011KT M04/M06 A3017 RMK A01 T10411055  RH  090%=      5-min Rain = 0
KUM1 191030Z 33010KT M04/M06 A3018 RMK A01 T10411055  RH  090%=      5-min Rain = 0
KUM1 191031Z 33010KT M04/M06 A3018 RMK A01 T10411055  RH  090%=      5-min Rain = 0
KUM1 191032Z 33011KT M04/M06 A3018 RMK A01 T10411055  RH  090%=      5-min Rain = 0
KUM1 191033Z 33011KT M04/M06 A3018 RMK A01 T10411055  RH  090%=      5-min Rain = 0
KUM1 191034Z 33012KT M04/M06 A3018 RMK A01 T10421056  RH  090%=      5-min Rain = 0
KUM1 191035Z 33012KT M04/M06 A3018 RMK A01 T10421055  RH  090%=      5-min Rain = 0
KUM1 191036Z 33012KT M04/M06 A3018 RMK A01 T10411055  RH  090%=      5-min Rain = 0
KUM1 191037Z 33011KT M04/M06 A3018 RMK A01 T10411055  RH  090%=      5-min Rain = 0
KUM1 191038Z 32012KT M04/M05 A3018 RMK A01 T10411054  RH  090%=      5-min Rain = 0
KUM1 191039Z 33012KT M04/M05 A3018 RMK A01 T10411054  RH  090%=      5-min Rain = 0
KUM1 191040Z 33012KT M04/M05 A3018 RMK A01 T10411054  RH  090%=      5-min Rain = 0
KUM1 191041Z 33012KT M04/M06 A3018 RMK A01 T10411055  RH  090%=      5-min Rain = 0
KUM1 191042Z 33012KT M04/M05 A3018 RMK A01 T10401054  RH  090%=      5-min Rain = 0
KUM1 191043Z 33012KT M04/M05 A3018 RMK A01 T10401054  RH  090%=      5-min Rain = 0
KUM1 191044Z 33012KT M04/M05 A3018 RMK A01 T10401054  RH  090%=      5-min Rain = 0
KUM1 191045Z 33012KT M04/M05 A3018 RMK A01 T10401054  RH  090%=      5-min Rain = 0
KUM1 191046Z 33012KT M04/M05 A3018 RMK A01 T10401054  RH  090%=      5-min Rain = 0
KUM1 191047Z 33014KT M04/M05 A3018 RMK A01 T10401054  RH  090%=      5-min Rain = 0
KUM1 191048Z 33013KT M04/M05 A3018 RMK A01 T10391053  RH  090%=      5-min Rain = 0
KUM1 191049Z 33013KT M04/M05 A3018 RMK A01 T10391053  RH  090%=      5-min Rain = 0
KUM1 191050Z 33013KT M04/M05 A3018 RMK A01 T10391053  RH  090%=      5-min Rain = 0
KUM1 191051Z 33013KT M04/M05 A3018 RMK A01 T10391053  RH  090%=      5-min Rain = 0
KUM1 191052Z 33012KT M04/M05 A3018 RMK A01 T10391053  RH  090%=      5-min Rain = 0
KUM1 191053Z 33012KT M04/M05 A3018 RMK A01 T10401054  RH  090%=      5-min Rain = 0
KUM1 191054Z 33014KT M04/M05 A3018 RMK A01 T10401054  RH  090%=      5-min Rain = 0
KUM1 191055Z 33013KT M04/M05 A3018 RMK A01 T10401054  RH  090%=      5-min Rain = 0
KUM1 191056Z 33014KT M04/M05 A3018 RMK A01 T10401054  RH  090%=      5-min Rain = 0
KUM1 191057Z 33015KT M04/M05 A3018 RMK A01 T10391053  RH  090%=      5-min Rain = 0
KUM1 191058Z 33014KT M04/M05 A3018 RMK A01 T10381052  RH  090%=      5-min Rain = 0
KUM1 191059Z 33015KT M04/M05 A3018 RMK A01 T10381053  RH  090%=      5-min Rain = 0
KUM1 191100Z 33014KT M04/M05 A3018 RMK A01 T10381053  RH  090%=      5-min Rain = 0
KUM1 191101Z 33015KT M04/M05 A3018 RMK A01 T10381053  RH  089%=      5-min Rain = 0
KUM1 191102Z 33015KT M04/M05 A3018 RMK A01 T10381053  RH  089%=      5-min Rain = 0
KUM1 191103Z 33015KT M04/M05 A3018 RMK A01 T10381053  RH  089%=      5-min Rain = 0
KUM1 191104Z 33014KT M04/M05 A3018 RMK A01 T10381053  RH  089%=      5-min Rain = 0
KUM1 191105Z 33014KT M04/M05 A3018 RMK A01 T10381053  RH  089%=      5-min Rain = 0
KUM1 191106Z 33015KT M04/M05 A3018 RMK A01 T10391054  RH  089%=      5-min Rain = 0
KUM1 191107Z 33014KT M04/M05 A3018 RMK A01 T10381053  RH  089%=      5-min Rain = 0
KUM1 191108Z 33014KT M04/M05 A3018 RMK A01 T10381054  RH  089%=      5-min Rain = 0
KUM1 191109Z 33014KT M04/M05 A3018 RMK A01 T10391054  RH  089%=      5-min Rain = 0
KUM1 191110Z 33013KT M04/M06 A3018 RMK A01 T10401055  RH  089%=      5-min Rain = 0
KUM1 191111Z 33014KT M04/M06 A3018 RMK A01 T10401055  RH  089%=      5-min Rain = 0
KUM1 191112Z 33013KT M04/M06 A3018 RMK A01 T10411055  RH  089%=      5-min Rain = 0
KUM1 191113Z 33013KT M04/M06 A3018 RMK A01 T10411055  RH  090%=      5-min Rain = 0
KUM1 191114Z 33014KT M04/M06 A3018 RMK A01 T10411056  RH  090%=      5-min Rain = 0
KUM1 191115Z 33013KT M04/M06 A3018 RMK A01 T10411055  RH  090%=      5-min Rain = 0
KUM1 191116Z 33013KT M04/M06 A3018 RMK A01 T10411055  RH  090%=      5-min Rain = 0
KUM1 191117Z 33012KT M04/M06 A3018 RMK A01 T10411055  RH  090%=      5-min Rain = 0
KUM1 191118Z 33013KT M04/M06 A3018 RMK A01 T10411055  RH  090%=      5-min Rain = 0
KUM1 191119Z 33013KT M04/M06 A3018 RMK A01 T10411056  RH  090%=      5-min Rain = 0
KUM1 191120Z 33013KT M04/M06 A3018 RMK A01 T10411056  RH  090%=      5-min Rain = 0
KUM1 191121Z 33012KT M04/M06 A3018 RMK A01 T10421056  RH  090%=      5-min Rain = 0
KUM1 191122Z 33013KT M04/M06 A3017 RMK A01 T10421057  RH  090%=      5-min Rain = 0
KUM1 191123Z 33013KT M04/M06 A3018 RMK A01 T10421056  RH  090%=      5-min Rain = 0
KUM1 191124Z 33013KT M04/M06 A3018 RMK A01 T10411056  RH  090%=      5-min Rain = 0
KUM1 191125Z 33013KT M04/M06 A3017 RMK A01 T10411056  RH  090%=      5-min Rain = 0
KUM1 191126Z 33013KT M04/M06 A3017 RMK A01 T10421056  RH  090%=      5-min Rain = 0
KUM1 191127Z 34013KT M04/M06 A3017 RMK A01 T10421056  RH  090%=      5-min Rain = 0
KUM1 191128Z 34012KT M04/M06 A3017 RMK A01 T10421056  RH  090%=      5-min Rain = 0
KUM1 191129Z 34012KT M04/M06 A3017 RMK A01 T10431057  RH  089%=      5-min Rain = 0
KUM1 191130Z 34011KT M04/M06 A3017 RMK A01 T10431058  RH  090%=      5-min Rain = 0
KUM1 191131Z 34012KT M04/M06 A3017 RMK A01 T10441058  RH  090%=      5-min Rain = 0
KUM1 191132Z 34012KT M04/M06 A3017 RMK A01 T10441058  RH  090%=      5-min Rain = 0
KUM1 191133Z 35011KT M04/M06 A3017 RMK A01 T10441059  RH  090%=      5-min Rain = 0
KUM1 191134Z 34012KT M05/M06 A3018 RMK A01 T10451059  RH  090%=      5-min Rain = 0
KUM1 191135Z 35011KT M05/M06 A3018 RMK A01 T10451058  RH  090%=      5-min Rain = 0
KUM1 191136Z 35011KT M05/M06 A3017 RMK A01 T10451059  RH  090%=      5-min Rain = 0
KUM1 191137Z 35011KT M05/M06 A3018 RMK A01 T10451059  RH  090%=      5-min Rain = 0
KUM1 191138Z 35010KT M05/M06 A3018 RMK A01 T10461060  RH  090%=      5-min Rain = 0
KUM1 191139Z 35010KT M05/M06 A3017 RMK A01 T10461060  RH  090%=      5-min Rain = 0
KUM1 191140Z 35010KT M05/M06 A3017 RMK A01 T10471061  RH  090%=      5-min Rain = 0
KUM1 191141Z 35010KT M05/M06 A3018 RMK A01 T10471061  RH  090%=      5-min Rain = 0
KUM1 191142Z 35010KT M05/M06 A3018 RMK A01 T10481062  RH  090%=      5-min Rain = 0
KUM1 191143Z 35010KT M05/M06 A3018 RMK A01 T10491063  RH  090%=      5-min Rain = 0
KUM1 191144Z 35010KT M05/M06 A3018 RMK A01 T10501064  RH  090%=      5-min Rain = 0
KUM1 191145Z 35010KT M05/M06 A3018 RMK A01 T10501063  RH  091%=      5-min Rain = 0
KUM1 191146Z 35009KT M05/M06 A3018 RMK A01 T10501063  RH  091%=      5-min Rain = 0
KUM1 191147Z 35010KT M05/M06 A3018 RMK A01 T10501062  RH  091%=      5-min Rain = 0
KUM1 191148Z 35010KT M05/M06 A3018 RMK A01 T10501062  RH  091%=      5-min Rain = 0
KUM1 191149Z 35009KT M05/M06 A3018 RMK A01 T10491061  RH  091%=      5-min Rain = 0
KUM1 191150Z 35010KT M05/M06 A3018 RMK A01 T10491061  RH  091%=      5-min Rain = 0
KUM1 191151Z 34009KT M05/M06 A3018 RMK A01 T10491062  RH  091%=      5-min Rain = 0
KUM1 191152Z 34009KT M05/M06 A3018 RMK A01 T10501063  RH  091%=      5-min Rain = 0
KUM1 191153Z 34010KT M05/M06 A3018 RMK A01 T10501063  RH  091%=      5-min Rain = 0
KUM1 191154Z 34010KT M05/M06 A3018 RMK A01 T10501063  RH  091%=      5-min Rain = 0
KUM1 191155Z 34010KT M05/M06 A3018 RMK A01 T10501062  RH  091%=      5-min Rain = 0
KUM1 191156Z 35010KT M05/M06 A3018 RMK A01 T10501063  RH  091%=      5-min Rain = 0
KUM1 191157Z 34009KT M05/M06 A3018 RMK A01 T10501062  RH  091%=      5-min Rain = 0
KUM1 191158Z 34009KT M05/M06 A3018 RMK A01 T10501063  RH  091%=      5-min Rain = 0
KUM1 191159Z 34010KT M05/M06 A3018 RMK A01 T10501063  RH  091%=      5-min Rain = 0
KUM1 191200Z 34010KT M05/M06 A3018 RMK A01 T10501063  RH  091%=      5-min Rain = 0
KUM1 191201Z 34010KT M05/M06 A3018 RMK A01 T10501062  RH  091%=      5-min Rain = 0
KUM1 191202Z 34010KT M05/M06 A3018 RMK A01 T10501063  RH  091%=      5-min Rain = 0
KUM1 191203Z 34010KT M05/M06 A3018 RMK A01 T10501063  RH  091%=      5-min Rain = 0
KUM1 191204Z 34010KT M05/M06 A3018 RMK A01 T10491062  RH  091%=      5-min Rain = 0
KUM1 191205Z 34010KT M05/M06 A3018 RMK A01 T10491062  RH  091%=      5-min Rain = 0
KUM1 191206Z 34010KT M05/M06 A3018 RMK A01 T10491062  RH  091%=      5-min Rain = 0
KUM1 191207Z 34010KT M05/M06 A3019 RMK A01 T10491062  RH  091%=      5-min Rain = 0
KUM1 191208Z 34010KT M05/M06 A3019 RMK A01 T10491062  RH  091%=      5-min Rain = 0
KUM1 191209Z 34010KT M05/M06 A3019 RMK A01 T10491062  RH  091%=      5-min Rain = 0
KUM1 191210Z 34010KT M05/M06 A3019 RMK A01 T10491062  RH  091%=      5-min Rain = 0
KUM1 191211Z 34010KT M05/M06 A3019 RMK A01 T10491062  RH  090%=      5-min Rain = 0
KUM1 191212Z 34010KT M05/M06 A3019 RMK A01 T10491062  RH  090%=      5-min Rain = 0
KUM1 191213Z 34010KT M05/M06 A3019 RMK A01 T10491063  RH  090%=      5-min Rain = 0
KUM1 191214Z 34009KT M05/M06 A3019 RMK A01 T10501064  RH  090%=      5-min Rain = 0
KUM1 191215Z 34009KT M05/M06 A3019 RMK A01 T10501064  RH  090%=      5-min Rain = 0
KUM1 191216Z 34009KT M05/M06 A3019 RMK A01 T10511064  RH  090%=      5-min Rain = 0
KUM1 191217Z 34009KT M05/M06 A3019 RMK A01 T10511064  RH  090%=      5-min Rain = 0
KUM1 191218Z 34008KT M05/M07 A3019 RMK A01 T10521065  RH  090%=      5-min Rain = 0
KUM1 191219Z 33008KT M05/M07 A3019 RMK A01 T10531066  RH  090%=      5-min Rain = 0
KUM1 191220Z 33008KT M05/M07 A3019 RMK A01 T10541068  RH  090%=      5-min Rain = 0
KUM1 191221Z 33008KT M06/M07 A3019 RMK A01 T10551069  RH  090%=      5-min Rain = 0
KUM1 191222Z 33007KT M06/M07 A3019 RMK A01 T10561070  RH  090%=      5-min Rain = 0
KUM1 191223Z 33007KT M06/M07 A3019 RMK A01 T10581071  RH  090%=      5-min Rain = 0
KUM1 191224Z 33006KT M06/M07 A3019 RMK A01 T10591073  RH  090%=      5-min Rain = 0
KUM1 191225Z 33006KT M06/M07 A3019 RMK A01 T10601073  RH  090%=      5-min Rain = 0
KUM1 191226Z 33006KT M06/M07 A3019 RMK A01 T10611074  RH  091%=      5-min Rain = 0
KUM1 191227Z 34006KT M06/M07 A3019 RMK A01 T10621074  RH  091%=      5-min Rain = 0
KUM1 191228Z 33006KT M06/M08 A3019 RMK A01 T10621075  RH  091%=      5-min Rain = 0
KUM1 191229Z 33006KT M06/M08 A3019 RMK A01 T10631076  RH  091%=      5-min Rain = 0
KUM1 191230Z 34006KT M06/M08 A3019 RMK A01 T10641075  RH  092%=      5-min Rain = 0
KUM1 191231Z 33006KT M06/M07 A3019 RMK A01 T10631073  RH  092%=      5-min Rain = 0
KUM1 191232Z 33006KT M06/M07 A302 RMK A01 T10631073  RH  093%=      5-min Rain = 0
KUM1 191233Z 33006KT M06/M07 A302 RMK A01 T10621072  RH  093%=      5-min Rain = 0
KUM1 191234Z 33006KT M06/M07 A302 RMK A01 T10611070  RH  093%=      5-min Rain = 0
KUM1 191235Z 33006KT M06/M07 A302 RMK A01 T10601069  RH  093%=      5-min Rain = 0
KUM1 191236Z 33005KT M06/M07 A302 RMK A01 T10601070  RH  093%=      5-min Rain = 0
KUM1 191237Z 32005KT M06/M07 A302 RMK A01 T10601071  RH  092%=      5-min Rain = 0
KUM1 191238Z 32005KT M06/M07 A302 RMK A01 T10601071  RH  092%=      5-min Rain = 0
KUM1 191239Z 32005KT M06/M07 A302 RMK A01 T10601071  RH  092%=      5-min Rain = 0
KUM1 191240Z 31004KT M06/M07 A302 RMK A01 T10601070  RH  093%=      5-min Rain = 0
KUM1 191241Z 31004KT M06/M07 A302 RMK A01 T10601070  RH  093%=      5-min Rain = 0
KUM1 191242Z 31004KT M06/M07 A302 RMK A01 T10591069  RH  093%=      5-min Rain = 0
KUM1 191243Z 30004KT M06/M07 A302 RMK A01 T10581067  RH  093%=      5-min Rain = 0
KUM1 191244Z 30004KT M06/M07 A302 RMK A01 T10581067  RH  093%=      5-min Rain = 0
KUM1 191245Z 30004KT M06/M07 A302 RMK A01 T10581068  RH  093%=      5-min Rain = 0
KUM1 191246Z 29005KT M06/M07 A3021 RMK A01 T10591070  RH  092%=      5-min Rain = 0
KUM1 191247Z 29005KT M06/M07 A3021 RMK A01 T10601071  RH  092%=      5-min Rain = 0
KUM1 191248Z 28005KT M06/M07 A3021 RMK A01 T10601072  RH  092%=      5-min Rain = 0
KUM1 191249Z 28006KT M06/M07 A3021 RMK A01 T10611073  RH  091%=      5-min Rain = 0
KUM1 191250Z 29006KT M06/M07 A3021 RMK A01 T10621074  RH  091%=      5-min Rain = 0
KUM1 191251Z 29006KT M06/M07 A3021 RMK A01 T10621073  RH  092%=      5-min Rain = 0
KUM1 191252Z 29006KT M06/M07 A3021 RMK A01 T10621073  RH  092%=      5-min Rain = 0
KUM1 191253Z 29006KT M06/M07 A3021 RMK A01 T10621074  RH  092%=      5-min Rain = 0
KUM1 191254Z 28006KT M06/M07 A3021 RMK A01 T10631074  RH  092%=      5-min Rain = 0
KUM1 191255Z 27005KT M06/M07 A3021 RMK A01 T10631074  RH  092%=      5-min Rain = 0
KUM1 191256Z 26005KT M06/M07 A3021 RMK A01 T10631074  RH  092%=      5-min Rain = 0
KUM1 191257Z 26005KT M06/M07 A3021 RMK A01 T10631073  RH  092%=      5-min Rain = 0
KUM1 191258Z 27005KT M06/M07 A3021 RMK A01 T10611070  RH  093%=      5-min Rain = 0
KUM1 191259Z 27006KT M06/M07 A3021 RMK A01 T10591068  RH  093%=      5-min Rain = 0
KUM1 191300Z 28006KT M06/M07 A3021 RMK A01 T10581067  RH  093%=      5-min Rain = 0
KUM1 191301Z 28006KT M06/M07 A3021 RMK A01 T10581067  RH  093%=      5-min Rain = 0
KUM1 191302Z 28006KT M06/M07 A3021 RMK A01 T10571068  RH  092%=      5-min Rain = 0
KUM1 191303Z 28006KT M06/M07 A3021 RMK A01 T10581068  RH  092%=      5-min Rain = 0
KUM1 191304Z 28006KT M06/M07 A3021 RMK A01 T10571068  RH  092%=      5-min Rain = 0
KUM1 191305Z 28006KT M06/M07 A3021 RMK A01 T10571068  RH  092%=      5-min Rain = 0
KUM1 191306Z 29006KT M06/M07 A3021 RMK A01 T10571067  RH  092%=      5-min Rain = 0
KUM1 191307Z 28006KT M06/M07 A3021 RMK A01 T10561068  RH  092%=      5-min Rain = 0
KUM1 191308Z 29006KT M06/M07 A3021 RMK A01 T10561067  RH  092%=      5-min Rain = 0
KUM1 191309Z 29006KT M06/M07 A3021 RMK A01 T10551067  RH  091%=      5-min Rain = 0
KUM1 191310Z 29006KT M06/M07 A3021 RMK A01 T10561068  RH  091%=      5-min Rain = 0
KUM1 191311Z 28006KT M06/M07 A3021 RMK A01 T10561069  RH  091%=      5-min Rain = 0
KUM1 191312Z 28006KT M06/M07 A3021 RMK A01 T10571071  RH  090%=      5-min Rain = 0
KUM1 191313Z 28006KT M06/M07 A3021 RMK A01 T10591073  RH  090%=      5-min Rain = 0
KUM1 191314Z 28006KT M06/M08 A3021 RMK A01 T10601075  RH  089%=      5-min Rain = 0
KUM1 191315Z 28007KT M06/M08 A3021 RMK A01 T10611076  RH  090%=      5-min Rain = 0
KUM1 191316Z 28007KT M06/M07 A3021 RMK A01 T10611074  RH  090%=      5-min Rain = 0
KUM1 191317Z 28007KT M06/M07 A3021 RMK A01 T10611074  RH  091%=      5-min Rain = 0
KUM1 191318Z 28008KT M06/M07 A3022 RMK A01 T10611074  RH  091%=      5-min Rain = 0
KUM1 191319Z 28007KT M06/M07 A3022 RMK A01 T10611074  RH  091%=      5-min Rain = 0
KUM1 191320Z 28008KT M06/M07 A3022 RMK A01 T10611073  RH  091%=      5-min Rain = 0
KUM1 191321Z 29008KT M06/M07 A3022 RMK A01 T10611074  RH  091%=      5-min Rain = 0
KUM1 191322Z 29007KT M06/M08 A3022 RMK A01 T10621075  RH  091%=      5-min Rain = 0
KUM1 191323Z 29007KT M06/M08 A3022 RMK A01 T10631076  RH  091%=      5-min Rain = 0
KUM1 191324Z 29007KT M06/M08 A3022 RMK A01 T10631076  RH  091%=      5-min Rain = 0
KUM1 191325Z 29007KT M06/M08 A3022 RMK A01 T10641077  RH  091%=      5-min Rain = 0
KUM1 191326Z 30007KT M06/M08 A3022 RMK A01 T10641077  RH  091%=      5-min Rain = 0
KUM1 191327Z 30007KT M07/M08 A3022 RMK A01 T10651078  RH  091%=      5-min Rain = 0
KUM1 191328Z 30007KT M07/M08 A3022 RMK A01 T10651078  RH  091%=      5-min Rain = 0
KUM1 191329Z 30007KT M07/M08 A3022 RMK A01 T10651078  RH  091%=      5-min Rain = 0
KUM1 191330Z 30008KT M07/M08 A3022 RMK A01 T10661078  RH  091%=      5-min Rain = 0
KUM1 191331Z 30008KT M07/M08 A3022 RMK A01 T10671079  RH  091%=      5-min Rain = 0
KUM1 191332Z 30008KT M07/M08 A3022 RMK A01 T10671080  RH  091%=      5-min Rain = 0
KUM1 191333Z 30008KT M07/M08 A3022 RMK A01 T10671079  RH  091%=      5-min Rain = 0
KUM1 191334Z 30008KT M07/M08 A3022 RMK A01 T10671079  RH  091%=      5-min Rain = 0
KUM1 191335Z 30008KT M07/M08 A3022 RMK A01 T10671078  RH  091%=      5-min Rain = 0
KUM1 191336Z 30008KT M07/M08 A3022 RMK A01 T10661078  RH  091%=      5-min Rain = 0
KUM1 191337Z 30008KT M07/M08 A3022 RMK A01 T10661078  RH  091%=      5-min Rain = 0
KUM1 191338Z 30008KT M07/M08 A3022 RMK A01 T10661078  RH  091%=      5-min Rain = 0
KUM1 191339Z 30008KT M07/M08 A3022 RMK A01 T10651077  RH  091%=      5-min Rain = 0
KUM1 191340Z 30008KT M07/M08 A3022 RMK A01 T10651077  RH  091%=      5-min Rain = 0
KUM1 191341Z 30008KT M07/M08 A3022 RMK A01 T10651077  RH  091%=      5-min Rain = 0
KUM1 191342Z 30008KT M07/M08 A3022 RMK A01 T10661079  RH  090%=      5-min Rain = 0
KUM1 191343Z 30008KT M07/M08 A3023 RMK A01 T10661079  RH  091%=      5-min Rain = 0
KUM1 191344Z 30009KT M07/M08 A3023 RMK A01 T10651078  RH  091%=      5-min Rain = 0
KUM1 191345Z 30009KT M06/M08 A3023 RMK A01 T10641076  RH  091%=      5-min Rain = 0
KUM1 191346Z 30008KT M06/M07 A3023 RMK A01 T10621074  RH  091%=      5-min Rain = 0
KUM1 191347Z 30009KT M06/M07 A3023 RMK A01 T10611073  RH  091%=      5-min Rain = 0
KUM1 191348Z 29009KT M06/M07 A3023 RMK A01 T10601073  RH  091%=      5-min Rain = 0
KUM1 191349Z 29009KT M06/M07 A3023 RMK A01 T10601073  RH  090%=      5-min Rain = 0
KUM1 191350Z 29009KT M06/M07 A3023 RMK A01 T10601073  RH  090%=      5-min Rain = 0
KUM1 191351Z 29009KT M06/M07 A3023 RMK A01 T10591073  RH  090%=      5-min Rain = 0
KUM1 191352Z 29008KT M06/M07 A3023 RMK A01 T10581073  RH  090%=      5-min Rain = 0
KUM1 191353Z 29008KT M06/M07 A3024 RMK A01 T10581072  RH  090%=      5-min Rain = 0
KUM1 191354Z 30008KT M06/M07 A3024 RMK A01 T10561070  RH  090%=      5-min Rain = 0
KUM1 191355Z 30008KT M06/M07 A3024 RMK A01 T10551069  RH  090%=      5-min Rain = 0
KUM1 191356Z 29008KT M06/M07 A3024 RMK A01 T10551069  RH  089%=      5-min Rain = 0
KUM1 191357Z 30008KT M06/M07 A3024 RMK A01 T10551071  RH  089%=      5-min Rain = 0
KUM1 191358Z 30008KT M06/M07 A3024 RMK A01 T10551071  RH  089%=      5-min Rain = 0
KUM1 191359Z 30008KT M06/M07 A3024 RMK A01 T10561071  RH  089%=      5-min Rain = 0
KUM1 191400Z 30008KT M06/M07 A3024 RMK A01 T10561071  RH  089%=      5-min Rain = 0
KUM1 191401Z 30007KT M06/M07 A3024 RMK A01 T10561071  RH  089%=      5-min Rain = 0
KUM1 191402Z 30007KT M06/M07 A3024 RMK A01 T10551071  RH  089%=      5-min Rain = 0
KUM1 191403Z 30007KT M06/M07 A3024 RMK A01 T10551071  RH  089%=      5-min Rain = 0
KUM1 191404Z 30007KT M06/M07 A3024 RMK A01 T10561072  RH  089%=      5-min Rain = 0
KUM1 191405Z 30007KT M06/M07 A3024 RMK A01 T10571073  RH  088%=      5-min Rain = 0
KUM1 191406Z 30007KT M06/M07 A3024 RMK A01 T10571073  RH  089%=      5-min Rain = 0
KUM1 191407Z 30007KT M06/M07 A3024 RMK A01 T10571072  RH  089%=      5-min Rain = 0
KUM1 191408Z 30007KT M06/M07 A3024 RMK A01 T10561072  RH  089%=      5-min Rain = 0
KUM1 191409Z 30007KT M06/M07 A3024 RMK A01 T10561073  RH  088%=      5-min Rain = 0
KUM1 191410Z 30007KT M06/M07 A3024 RMK A01 T10561072  RH  089%=      5-min Rain = 0
KUM1 191411Z 30007KT M06/M07 A3024 RMK A01 T10561072  RH  089%=      5-min Rain = 0
KUM1 191412Z 30007KT M06/M07 A3024 RMK A01 T10551070  RH  089%=      5-min Rain = 0
KUM1 191413Z 30008KT M05/M07 A3025 RMK A01 T10531068  RH  089%=      5-min Rain = 0
KUM1 191414Z 31008KT M05/M07 A3025 RMK A01 T10521068  RH  089%=      5-min Rain = 0
KUM1 191415Z 31007KT M05/M07 A3025 RMK A01 T10511068  RH  088%=      5-min Rain = 0
KUM1 191416Z 31008KT M05/M07 A3025 RMK A01 T10511068  RH  088%=      5-min Rain = 0
KUM1 191417Z 31007KT M05/M07 A3025 RMK A01 T10501066  RH  088%=      5-min Rain = 0
KUM1 191418Z 31007KT M05/M07 A3025 RMK A01 T10491066  RH  088%=      5-min Rain = 0
KUM1 191419Z 31007KT M05/M07 A3025 RMK A01 T10481065  RH  088%=      5-min Rain = 0
KUM1 191420Z 31006KT M05/M07 A3025 RMK A01 T10481065  RH  088%=      5-min Rain = 0
KUM1 191421Z 31006KT M05/M07 A3025 RMK A01 T10471065  RH  088%=      5-min Rain = 0
KUM1 191422Z 32007KT M05/M07 A3025 RMK A01 T10471065  RH  087%=      5-min Rain = 0
KUM1 191423Z 32006KT M05/M06 A3025 RMK A01 T10451062  RH  088%=      5-min Rain = 0
KUM1 191424Z 32007KT M04/M06 A3025 RMK A01 T10431060  RH  088%=      5-min Rain = 0
KUM1 191425Z 32008KT M04/M06 A3025 RMK A01 T10411059  RH  088%=      5-min Rain = 0
KUM1 191426Z 33009KT M04/M06 A3025 RMK A01 T10381055  RH  088%=      5-min Rain = 0
KUM1 191427Z 33010KT M03/M05 A3025 RMK A01 T10331051  RH  088%=      5-min Rain = 0
KUM1 191428Z 33010KT M03/M05 A3025 RMK A01 T10301049  RH  087%=      5-min Rain = 0
KUM1 191429Z 32010KT M03/M05 A3025 RMK A01 T10271048  RH  085%=      5-min Rain = 0
KUM1 191430Z 32010KT M03/M05 A3025 RMK A01 T10251048  RH  084%=      5-min Rain = 0
KUM1 191431Z 32009KT M03/M05 A3025 RMK A01 T10251049  RH  083%=      5-min Rain = 0
KUM1 191432Z 32009KT M02/M05 A3025 RMK A01 T10241049  RH  083%=      5-min Rain = 0
KUM1 191433Z 32009KT M02/M05 A3026 RMK A01 T10241049  RH  083%=      5-min Rain = 0
KUM1 191434Z 32009KT M02/M05 A3026 RMK A01 T10231049  RH  083%=      5-min Rain = 0
KUM1 191435Z 32008KT M02/M05 A3026 RMK A01 T10231049  RH  082%=      5-min Rain = 0
KUM1 191436Z 32008KT M02/M05 A3026 RMK A01 T10231049  RH  082%=      5-min Rain = 0
KUM1 191437Z 32008KT M02/M05 A3026 RMK A01 T10241050  RH  082%=      5-min Rain = 0
KUM1 191438Z 31007KT M03/M05 A3026 RMK A01 T10251051  RH  083%=      5-min Rain = 0
KUM1 191439Z 31006KT M03/M05 A3026 RMK A01 T10261051  RH  083%=      5-min Rain = 0
KUM1 191440Z 30006KT M03/M05 A3026 RMK A01 T10271052  RH  083%=      5-min Rain = 0
KUM1 191441Z 30007KT M03/M05 A3026 RMK A01 T10281052  RH  083%=      5-min Rain = 0
KUM1 191442Z 30007KT M03/M05 A3026 RMK A01 T10281051  RH  084%=      5-min Rain = 0
KUM1 191443Z 30007KT M03/M05 A3026 RMK A01 T10281052  RH  084%=      5-min Rain = 0
KUM1 191444Z 30007KT M03/M05 A3026 RMK A01 T10281052  RH  084%=      5-min Rain = 0
KUM1 191445Z 30007KT M03/M05 A3026 RMK A01 T10281051  RH  084%=      5-min Rain = 0
KUM1 191446Z 30006KT M03/M05 A3026 RMK A01 T10281051  RH  084%=      5-min Rain = 0
KUM1 191447Z 31007KT M03/M05 A3026 RMK A01 T10291052  RH  084%=      5-min Rain = 0
KUM1 191448Z 31007KT M03/M05 A3026 RMK A01 T10291051  RH  084%=      5-min Rain = 0
KUM1 191449Z 31007KT M03/M05 A3026 RMK A01 T10281050  RH  085%=      5-min Rain = 0
KUM1 191450Z 31007KT M03/M05 A3026 RMK A01 T10261048  RH  085%=      5-min Rain = 0
KUM1 191451Z 32008KT M03/M05 A3026 RMK A01 T10251048  RH  084%=      5-min Rain = 0
KUM1 191452Z 32007KT M02/M05 A3026 RMK A01 T10231047  RH  084%=      5-min Rain = 0
KUM1 191453Z 32010KT M02/M05 A3027 RMK A01 T10231047  RH  083%=      5-min Rain = 0
KUM1 191454Z 32011KT M02/M05 A3027 RMK A01 T10201045  RH  083%=      5-min Rain = 0
KUM1 191455Z 33012KT M02/M04 A3027 RMK A01 T10181043  RH  083%=      5-min Rain = 0
KUM1 191456Z 33013KT M01/M04 A3027 RMK A01 T10141040  RH  083%=      5-min Rain = 0
KUM1 191457Z 33014KT M01/M04 A3027 RMK A01 T10101038  RH  081%=      5-min Rain = 0
KUM1 191458Z 33015KT M01/M04 A3027 RMK A01 T10081038  RH  080%=      5-min Rain = 0
KUM1 191459Z 34015KT M01/M04 A3027 RMK A01 T10061038  RH  079%=      5-min Rain = 0
KUM1 191500Z 34016KT M01/M04 A3027 RMK A01 T10051038  RH  078%=      5-min Rain = 0
KUM1 191501Z 34016KT M00/M04 A3027 RMK A01 T10041038  RH  078%=      5-min Rain = 0
KUM1 191502Z 34015KT M00/M04 A3027 RMK A01 T10031038  RH  077%=      5-min Rain = 0
KUM1 191503Z 34017KT M00/M04 A3027 RMK A01 T10021038  RH  077%=      5-min Rain = 0
KUM1 191504Z 34017KT M00/M04 A3027 RMK A01 T10021038  RH  077%=      5-min Rain = 0
KUM1 191505Z 34016KT M00/M04 A3027 RMK A01 T10011038  RH  076%=      5-min Rain = 0
KUM1 191506Z 34017KT M00/M04 A3027 RMK A01 T10011038  RH  076%=      5-min Rain = 0
KUM1 191507Z 34017KT M00/M04 A3027 RMK A01 T10011038  RH  076%=      5-min Rain = 0
KUM1 191508Z 34016KT M00/M04 A3027 RMK A01 T10011038  RH  076%=      5-min Rain = 0
KUM1 191509Z 35016KT M00/M04 A3027 RMK A01 T10011038  RH  076%=      5-min Rain = 0
KUM1 191510Z 34016KT M00/M04 A3027 RMK A01 T10011038  RH  076%=      5-min Rain = 0
KUM1 191511Z 34015KT M00/M04 A3027 RMK A01 T10011037  RH  076%=      5-min Rain = 0
KUM1 191512Z 34016KT M00/M04 A3027 RMK A01 T10011038  RH  076%=      5-min Rain = 0
KUM1 191513Z 34015KT M00/M04 A3027 RMK A01 T10011038  RH  076%=      5-min Rain = 0
KUM1 191514Z 34014KT M00/M04 A3027 RMK A01 T10011037  RH  076%=      5-min Rain = 0
KUM1 191515Z 34015KT M00/M04 A3027 RMK A01 T10011037  RH  077%=      5-min Rain = 0
KUM1 191516Z 34014KT M00/M04 A3027 RMK A01 T10011037  RH  077%=      5-min Rain = 0
KUM1 191517Z 34014KT M00/M04 A3027 RMK A01 T10021037  RH  077%=      5-min Rain = 0
KUM1 191518Z 35014KT M00/M04 A3028 RMK A01 T10021037  RH  077%=      5-min Rain = 0
KUM1 191519Z 34013KT M00/M04 A3028 RMK A01 T10021037  RH  077%=      5-min Rain = 0
KUM1 191520Z 34014KT M00/M04 A3027 RMK A01 T10021037  RH  077%=      5-min Rain = 0
KUM1 191521Z 34014KT M00/M04 A3028 RMK A01 T10021037  RH  077%=      5-min Rain = 0
KUM1 191522Z 34014KT M00/M04 A3028 RMK A01 T10011037  RH  077%=      5-min Rain = 0
KUM1 191523Z 35014KT M00/M04 A3028 RMK A01 T10011037  RH  077%=      5-min Rain = 0
KUM1 191524Z 35014KT M00/M04 A3028 RMK A01 T10011037  RH  077%=      5-min Rain = 0
KUM1 191525Z 35014KT M00/M04 A3028 RMK A01 T10011037  RH  077%=      5-min Rain = 0
KUM1 191526Z 35014KT M00/M04 A3028 RMK A01 T10011037  RH  077%=      5-min Rain = 0
KUM1 191527Z 35012KT 00/04 A3028 RMK A01 T00-00-37  RH  076%=      5-min Rain = 0
KUM1 191528Z 35014KT 00/04 A3028 RMK A01 T00-00-36  RH  077%=      5-min Rain = 0
KUM1 191529Z 35013KT 00/04 A3028 RMK A01 T00-00-36  RH  077%=      5-min Rain = 0
KUM1 191530Z 35012KT 00/04 A3028 RMK A01 T00-00-36  RH  077%=      5-min Rain = 0
KUM1 191531Z 34011KT M00/M04 A3028 RMK A01 T10011036  RH  077%=      5-min Rain = 0
KUM1 191532Z 34011KT M00/M04 A3028 RMK A01 T10011036  RH  077%=      5-min Rain = 0
KUM1 191533Z 35011KT M00/M04 A3028 RMK A01 T10011036  RH  077%=      5-min Rain = 0
KUM1 191534Z 34011KT M00/M04 A3028 RMK A01 T10011035  RH  077%=      5-min Rain = 0
KUM1 191535Z 34011KT M00/M04 A3029 RMK A01 T10011035  RH  078%=      5-min Rain = 0
KUM1 191536Z 34011KT M00/M04 A3029 RMK A01 T10011035  RH  078%=      5-min Rain = 0
KUM1 191537Z 35010KT M00/M04 A3029 RMK A01 T10011035  RH  078%=      5-min Rain = 0
KUM1 191538Z 35010KT M00/M03 A3029 RMK A01 T10011034  RH  078%=      5-min Rain = 0
KUM1 191539Z 35010KT M00/M03 A3029 RMK A01 T10011034  RH  078%=      5-min Rain = 0
KUM1 191540Z 34011KT M00/M03 A3029 RMK A01 T10011034  RH  078%=      5-min Rain = 0
KUM1 191541Z 35011KT M00/M03 A3029 RMK A01 T10011034  RH  078%=      5-min Rain = 0
KUM1 191542Z 35009KT 00/03 A3029 RMK A01 T00-00-34  RH  078%=      5-min Rain = 0
KUM1 191543Z 35009KT 00/03 A3029 RMK A01 T00-00-33  RH  079%=      5-min Rain = 0
KUM1 191544Z 35010KT M00/M03 A3029 RMK A01 T10011034  RH  079%=      5-min Rain = 0
KUM1 191545Z 35009KT 00/03 A3029 RMK A01 T00-00-34  RH  078%=      5-min Rain = 0
KUM1 191546Z 35010KT 00/03 A3029 RMK A01 T00000-34  RH  078%=      5-min Rain = 0
KUM1 191547Z 35010KT 00/04 A3029 RMK A01 T00000-35  RH  077%=      5-min Rain = 0
KUM1 191548Z 35009KT 00/M04 A3029 RMK A01 T00011035  RH  077%=      5-min Rain = 0
KUM1 191549Z 35009KT 00/M03 A3029 RMK A01 T00011034  RH  077%=      5-min Rain = 0
KUM1 191550Z 35010KT 00/M03 A3029 RMK A01 T00011034  RH  078%=      5-min Rain = 0
KUM1 191551Z 35010KT 00/M03 A3029 RMK A01 T00011033  RH  078%=      5-min Rain = 0
KUM1 191552Z 35010KT 00/M03 A3029 RMK A01 T00011034  RH  078%=      5-min Rain = 0
KUM1 191553Z 35010KT 00/M03 A3029 RMK A01 T00011034  RH  077%=      5-min Rain = 0
KUM1 191554Z 35009KT 00/M03 A3029 RMK A01 T00011034  RH  077%=      5-min Rain = 0.01
KUM1 191555Z 35010KT 00/M03 A3029 RMK A01 T00011034  RH  077%=      5-min Rain = 0
KUM1 191556Z 35009KT 00/M03 A3029 RMK A01 T00011034  RH  077%=      5-min Rain = 0
KUM1 191557Z 35009KT 00/M03 A3029 RMK A01 T00011033  RH  077%=      5-min Rain = 0
KUM1 191558Z 34009KT 00/M03 A3029 RMK A01 T00021034  RH  077%=      5-min Rain = 0
KUM1 191559Z 34008KT 00/M03 A3029 RMK A01 T00021033  RH  077%=      5-min Rain = 0
KUM1 191600Z 34008KT 00/M03 A303 RMK A01 T00021032  RH  078%=      5-min Rain = 0
KUM1 191601Z 34009KT 00/M03 A303 RMK A01 T00021032  RH  078%=      5-min Rain = 0
KUM1 191602Z 34008KT 00/M03 A303 RMK A01 T00021032  RH  078%=      5-min Rain = 0
KUM1 191603Z 34008KT 00/M03 A303 RMK A01 T00021032  RH  078%=      5-min Rain = 0
KUM1 191604Z 34008KT 00/M03 A303 RMK A01 T00031032  RH  078%=      5-min Rain = 0
KUM1 191605Z 34008KT 00/M03 A303 RMK A01 T00031033  RH  077%=      5-min Rain = 0
KUM1 191606Z 34007KT 00/M03 A303 RMK A01 T00041032  RH  077%=      5-min Rain = 0
KUM1 191607Z 34007KT 00/M03 A303 RMK A01 T00041033  RH  076%=      5-min Rain = 0
KUM1 191608Z 33007KT 00/M03 A303 RMK A01 T00041033  RH  076%=      5-min Rain = 0
KUM1 191609Z 34007KT 01/M03 A303 RMK A01 T00051032  RH  076%=      5-min Rain = 0
KUM1 191610Z 33007KT 01/M03 A303 RMK A01 T00051031  RH  077%=      5-min Rain = 0
KUM1 191611Z 33008KT 01/M03 A3031 RMK A01 T00051032  RH  077%=      5-min Rain = 0
KUM1 191612Z 33009KT 01/M03 A3031 RMK A01 T00051032  RH  076%=      5-min Rain = 0
KUM1 191613Z 33010KT 01/M03 A3031 RMK A01 T00051032  RH  076%=      5-min Rain = 0
KUM1 191614Z 34008KT 01/M03 A3031 RMK A01 T00061032  RH  076%=      5-min Rain = 0
KUM1 191615Z 34010KT 01/M03 A3031 RMK A01 T00061032  RH  076%=      5-min Rain = 0
KUM1 191616Z 33008KT 01/M03 A3031 RMK A01 T00061032  RH  076%=      5-min Rain = 0
KUM1 191617Z 34009KT 01/M03 A3031 RMK A01 T00061031  RH  076%=      5-min Rain = 0
KUM1 191618Z 34008KT 01/M03 A3031 RMK A01 T00061031  RH  076%=      5-min Rain = 0
KUM1 191619Z 34010KT 01/M03 A3031 RMK A01 T00071031  RH  076%=      5-min Rain = 0
KUM1 191620Z 34011KT 01/M03 A3031 RMK A01 T00071032  RH  075%=      5-min Rain = 0
KUM1 191621Z 34009KT 01/M03 A3031 RMK A01 T00071032  RH  075%=      5-min Rain = 0
KUM1 191622Z 34008KT 01/M03 A3031 RMK A01 T00081031  RH  075%=      5-min Rain = 0
KUM1 191623Z 34010KT 01/M03 A3031 RMK A01 T00081030  RH  076%=      5-min Rain = 0
KUM1 191624Z 34009KT 01/M03 A3031 RMK A01 T00081030  RH  076%=      5-min Rain = 0
KUM1 191625Z 34009KT 01/M03 A3031 RMK A01 T00081029  RH  076%=      5-min Rain = 0
KUM1 191626Z 34009KT 01/M03 A3031 RMK A01 T00091029  RH  076%=      5-min Rain = 0
KUM1 191627Z 35010KT 01/M03 A3031 RMK A01 T00091029  RH  076%=      5-min Rain = 0
KUM1 191628Z 34010KT 01/M03 A3031 RMK A01 T00091030  RH  075%=      5-min Rain = 0
KUM1 191629Z 35009KT 01/M03 A3031 RMK A01 T00091030  RH  075%=      5-min Rain = 0
KUM1 191630Z 35009KT 01/M03 A3031 RMK A01 T00091029  RH  075%=      5-min Rain = 0
KUM1 191631Z 35009KT 01/M03 A3031 RMK A01 T00091028  RH  076%=      5-min Rain = 0
KUM1 191632Z 36009KT 01/M03 A3031 RMK A01 T00101027  RH  076%=      5-min Rain = 0
KUM1 191633Z 36010KT 01/M03 A3031 RMK A01 T00101028  RH  076%=      5-min Rain = 0
KUM1 191634Z 36009KT 01/M03 A3031 RMK A01 T00101028  RH  076%=      5-min Rain = 0
KUM1 191635Z 36009KT 01/M03 A3031 RMK A01 T00101028  RH  075%=      5-min Rain = 0
KUM1 191636Z 36008KT 01/M03 A3031 RMK A01 T00101028  RH  076%=      5-min Rain = 0
KUM1 191637Z 00008KT 01/M03 A3031 RMK A01 T00101027  RH  076%=      5-min Rain = 0
KUM1 191638Z 00008KT 01/M03 A3031 RMK A01 T00111028  RH  075%=      5-min Rain = 0
KUM1 191639Z 00008KT 01/M03 A3032 RMK A01 T00111028  RH  075%=      5-min Rain = 0
KUM1 191640Z 36011KT 01/M03 A3032 RMK A01 T00111027  RH  076%=      5-min Rain = 0
KUM1 191641Z 36010KT 01/M03 A3032 RMK A01 T00111030  RH  074%=      5-min Rain = 0
KUM1 191642Z 36010KT 01/M03 A3032 RMK A01 T00111028  RH  075%=      5-min Rain = 0
KUM1 191643Z 00011KT 01/M03 A3032 RMK A01 T00111028  RH  075%=      5-min Rain = 0
KUM1 191644Z 01009KT 01/M03 A3032 RMK A01 T00111028  RH  076%=      5-min Rain = 0
KUM1 191645Z 02010KT 01/M03 A3032 RMK A01 T00111027  RH  076%=      5-min Rain = 0
KUM1 191646Z 04009KT 01/M03 A3032 RMK A01 T00101028  RH  076%=      5-min Rain = 0
KUM1 191647Z 04009KT 01/M03 A3032 RMK A01 T00081027  RH  077%=      5-min Rain = 0
KUM1 191648Z 04010KT 01/M03 A3032 RMK A01 T00071026  RH  079%=      5-min Rain = 0
KUM1 191649Z 04010KT 01/M03 A3032 RMK A01 T00051028  RH  079%=      5-min Rain = 0
KUM1 191650Z 03009KT 00/M03 A3032 RMK A01 T00041029  RH  078%=      5-min Rain = 0
KUM1 191651Z 03008KT 00/M03 A3032 RMK A01 T00031030  RH  078%=      5-min Rain = 0
KUM1 191652Z 03008KT 00/M03 A3032 RMK A01 T00031029  RH  079%=      5-min Rain = 0
KUM1 191653Z 04008KT 00/M03 A3032 RMK A01 T00021029  RH  080%=      5-min Rain = 0
KUM1 191654Z 03008KT 00/M03 A3032 RMK A01 T00021028  RH  081%=      5-min Rain = 0
KUM1 191655Z 03008KT 00/M03 A3032 RMK A01 T00011029  RH  080%=      5-min Rain = 0
KUM1 191656Z 03008KT 00/M03 A3033 RMK A01 T00011028  RH  081%=      5-min Rain = 0
KUM1 191657Z 03009KT 00/03 A3033 RMK A01 T00000-29  RH  080%=      5-min Rain = 0
KUM1 191658Z 03009KT M00/M03 A3033 RMK A01 T10011031  RH  080%=      5-min Rain = 0
KUM1 191659Z 03009KT M00/M03 A3032 RMK A01 T10021031  RH  080%=      5-min Rain = 0
KUM1 191700Z 02009KT M00/M03 A3032 RMK A01 T10021031  RH  081%=      5-min Rain = 0
KUM1 191701Z 02009KT M00/M03 A3032 RMK A01 T10011031  RH  081%=      5-min Rain = 0
KUM1 191702Z 02010KT M00/M03 A3032 RMK A01 T10011029  RH  082%=      5-min Rain = 0
KUM1 191703Z 02010KT M00/M03 A3032 RMK A01 T10011030  RH  081%=      5-min Rain = 0
KUM1 191704Z 02010KT M00/M03 A3032 RMK A01 T10011030  RH  081%=      5-min Rain = 0
KUM1 191705Z 01010KT M00/M03 A3032 RMK A01 T10021029  RH  082%=      5-min Rain = 0
KUM1 191706Z 01011KT M00/M03 A3033 RMK A01 T10011029  RH  081%=      5-min Rain = 0
KUM1 191707Z 01010KT M00/M03 A3032 RMK A01 T10011031  RH  080%=      5-min Rain = 0
KUM1 191708Z 01011KT M00/M03 A3032 RMK A01 T10021030  RH  081%=      5-min Rain = 0
KUM1 191709Z 01010KT M00/M03 A3032 RMK A01 T10011029  RH  082%=      5-min Rain = 0
KUM1 191710Z 01011KT 00/03 A3032 RMK A01 T00-00-27  RH  082%=      5-min Rain = 0
KUM1 191711Z 01012KT 00/03 A3032 RMK A01 T00000-27  RH  082%=      5-min Rain = 0
KUM1 191712Z 00011KT 00/03 A3032 RMK A01 T00000-28  RH  081%=      5-min Rain = 0
KUM1 191713Z 00012KT 00/M03 A3032 RMK A01 T00011028  RH  081%=      5-min Rain = 0
KUM1 191714Z 00011KT 00/M03 A3032 RMK A01 T00011029  RH  080%=      5-min Rain = 0
KUM1 191715Z 00011KT 00/M03 A3032 RMK A01 T00011029  RH  080%=      5-min Rain = 0
KUM1 191716Z 01011KT 00/03 A3032 RMK A01 T00000-29  RH  081%=      5-min Rain = 0
KUM1 191717Z 01011KT 00/M03 A3032 RMK A01 T00011028  RH  081%=      5-min Rain = 0
KUM1 191718Z 01012KT 00/M03 A3032 RMK A01 T00011029  RH  081%=      5-min Rain = 0
KUM1 191719Z 01011KT 00/M03 A3032 RMK A01 T00011028  RH  081%=      5-min Rain = 0
KUM1 191720Z 00012KT 00/03 A3032 RMK A01 T00-00-29  RH  081%=      5-min Rain = 0
KUM1 191721Z 00012KT M00/M03 A3032 RMK A01 T10011029  RH  081%=      5-min Rain = 0
KUM1 191722Z 01011KT 00/03 A3032 RMK A01 T00-00-27  RH  082%=      5-min Rain = 0
KUM1 191723Z 01013KT 00/03 A3032 RMK A01 T00000-25  RH  083%=      5-min Rain = 0
KUM1 191724Z 00012KT 00/M03 A3032 RMK A01 T00011026  RH  082%=      5-min Rain = 0
KUM1 191725Z 01012KT 00/M03 A3032 RMK A01 T00011025  RH  083%=      5-min Rain = 0
KUM1 191726Z 00012KT 00/M03 A3032 RMK A01 T00021025  RH  082%=      5-min Rain = 0
KUM1 191727Z 00013KT 00/M03 A3032 RMK A01 T00021025  RH  082%=      5-min Rain = 0
KUM1 191728Z 00013KT 00/M03 A3032 RMK A01 T00021027  RH  081%=      5-min Rain = 0
KUM1 191729Z 00012KT 00/M03 A3032 RMK A01 T00011028  RH  081%=      5-min Rain = 0
KUM1 191730Z 00012KT 00/M03 A3032 RMK A01 T00011026  RH  082%=      5-min Rain = 0
KUM1 191731Z 01012KT 00/M03 A3032 RMK A01 T00031025  RH  082%=      5-min Rain = 0
KUM1 191732Z 00013KT 00/M03 A3032 RMK A01 T00031025  RH  082%=      5-min Rain = 0
KUM1 191733Z 01013KT 00/M03 A3032 RMK A01 T00031025  RH  082%=      5-min Rain = 0
KUM1 191734Z 00012KT 00/M03 A3033 RMK A01 T00031025  RH  081%=      5-min Rain = 0
KUM1 191735Z 00012KT 00/M03 A3033 RMK A01 T00031025  RH  081%=      5-min Rain = 0
KUM1 191736Z 36010KT 00/M02 A3033 RMK A01 T00041024  RH  082%=      5-min Rain = 0
KUM1 191737Z 36012KT 01/M02 A3033 RMK A01 T00051022  RH  082%=      5-min Rain = 0
KUM1 191738Z 36011KT 00/M02 A3033 RMK A01 T00041024  RH  081%=      5-min Rain = 0
KUM1 191739Z 35012KT 01/M02 A3033 RMK A01 T00061022  RH  082%=      5-min Rain = 0
KUM1 191740Z 35013KT 01/M03 A3033 RMK A01 T00051026  RH  079%=      5-min Rain = 0
KUM1 191741Z 34012KT 00/M03 A3033 RMK A01 T00041027  RH  079%=      5-min Rain = 0
KUM1 191742Z 35011KT 00/M03 A3033 RMK A01 T00041026  RH  080%=      5-min Rain = 0
KUM1 191743Z 36010KT 01/M02 A3033 RMK A01 T00051023  RH  081%=      5-min Rain = 0
KUM1 191744Z 00011KT 01/M03 A3033 RMK A01 T00051025  RH  080%=      5-min Rain = 0
KUM1 191745Z 00010KT 00/M03 A3033 RMK A01 T00041026  RH  080%=      5-min Rain = 0
KUM1 191746Z 00010KT 01/M02 A3033 RMK A01 T00051023  RH  081%=      5-min Rain = 0
KUM1 191747Z 36009KT 01/M03 A3033 RMK A01 T00051026  RH  080%=      5-min Rain = 0
KUM1 191748Z 01009KT 01/M03 A3033 RMK A01 T00051025  RH  080%=      5-min Rain = 0
KUM1 191749Z 00009KT 01/M02 A3033 RMK A01 T00051023  RH  081%=      5-min Rain = 0
KUM1 191750Z 36008KT 01/M02 A3033 RMK A01 T00061022  RH  081%=      5-min Rain = 0
KUM1 191751Z 01009KT 01/M02 A3033 RMK A01 T00061023  RH  081%=      5-min Rain = 0
KUM1 191752Z 01009KT 01/M02 A3033 RMK A01 T00061024  RH  080%=      5-min Rain = 0
KUM1 191753Z 00009KT 01/M02 A3033 RMK A01 T00061023  RH  081%=      5-min Rain = 0
KUM1 191754Z 36009KT 01/M02 A3033 RMK A01 T00071023  RH  080%=      5-min Rain = 0
KUM1 191755Z 35009KT 01/M02 A3033 RMK A01 T00071022  RH  081%=      5-min Rain = 0
KUM1 191756Z 36009KT 01/M02 A3033 RMK A01 T00081020  RH  081%=      5-min Rain = 0
KUM1 191757Z 00009KT 01/M02 A3033 RMK A01 T00091022  RH  080%=      5-min Rain = 0
KUM1 191758Z 36009KT 01/M02 A3033 RMK A01 T00091024  RH  079%=      5-min Rain = 0
KUM1 191759Z 00007KT 01/M02 A3033 RMK A01 T00091024  RH  079%=      5-min Rain = 0
KUM1 191800Z 00008KT 01/M02 A3033 RMK A01 T00081023  RH  080%=      5-min Rain = 0
KUM1 191801Z 34009KT 01/M02 A3033 RMK A01 T00101020  RH  081%=      5-min Rain = 0
KUM1 191802Z 35008KT 01/M02 A3033 RMK A01 T00101022  RH  079%=      5-min Rain = 0
KUM1 191803Z 36007KT 01/M02 A3032 RMK A01 T00111021  RH  079%=      5-min Rain = 0
KUM1 191804Z 35009KT 01/M02 A3032 RMK A01 T00111021  RH  079%=      5-min Rain = 0.01
KUM1 191805Z 35009KT 01/M02 A3032 RMK A01 T00111021  RH  079%=      5-min Rain = 0
KUM1 191806Z 35009KT 01/M02 A3032 RMK A01 T00121020  RH  079%=      5-min Rain = 0
KUM1 191807Z 35007KT 01/M02 A3032 RMK A01 T00121020  RH  079%=      5-min Rain = 0
KUM1 191808Z 35007KT 01/M02 A3032 RMK A01 T00121020  RH  079%=      5-min Rain = 0
KUM1 191809Z 36009KT 01/M02 A3032 RMK A01 T00131018  RH  080%=      5-min Rain = 0
KUM1 191810Z 35009KT 01/M02 A3032 RMK A01 T00141017  RH  080%=      5-min Rain = 0
KUM1 191811Z 34008KT 02/M02 A3032 RMK A01 T00151017  RH  079%=      5-min Rain = 0
KUM1 191812Z 34009KT 02/M01 A3032 RMK A01 T00161014  RH  080%=      5-min Rain = 0
KUM1 191813Z 34010KT 02/M02 A3032 RMK A01 T00171018  RH  078%=      5-min Rain = 0
KUM1 191814Z 34010KT 02/M02 A3032 RMK A01 T00151023  RH  076%=      5-min Rain = 0
KUM1 191815Z 34009KT 01/M02 A3032 RMK A01 T00141022  RH  077%=      5-min Rain = 0
KUM1 191816Z 34008KT 02/M02 A3032 RMK A01 T00151015  RH  080%=      5-min Rain = 0
KUM1 191817Z 34010KT 02/M02 A3032 RMK A01 T00171015  RH  079%=      5-min Rain = 0
KUM1 191818Z 33010KT 02/M02 A3032 RMK A01 T00161021  RH  077%=      5-min Rain = 0
KUM1 191819Z 33009KT 02/M02 A3032 RMK A01 T00161019  RH  078%=      5-min Rain = 0
KUM1 191820Z 33009KT 02/M02 A3032 RMK A01 T00151021  RH  077%=      5-min Rain = 0
KUM1 191821Z 35008KT 02/M02 A3032 RMK A01 T00151017  RH  079%=      5-min Rain = 0
KUM1 191822Z 35007KT 02/M01 A3032 RMK A01 T00181011  RH  081%=      5-min Rain = 0
KUM1 191823Z 34009KT 02/M01 A3032 RMK A01 T00191013  RH  079%=      5-min Rain = 0
KUM1 191824Z 33011KT 02/M01 A3031 RMK A01 T00201014  RH  078%=      5-min Rain = 0
KUM1 191825Z 34009KT 02/M02 A3032 RMK A01 T00211015  RH  077%=      5-min Rain = 0
KUM1 191826Z 00007KT 02/M01 A3031 RMK A01 T00211012  RH  078%=      5-min Rain = 0
KUM1 191827Z 00007KT 02/M01 A3031 RMK A01 T00221012  RH  078%=      5-min Rain = 0
KUM1 191828Z 36007KT 02/M01 A3031 RMK A01 T00221011  RH  079%=      5-min Rain = 0
KUM1 191829Z 35009KT 02/M01 A3031 RMK A01 T00241010  RH  079%=      5-min Rain = 0
KUM1 191830Z 36008KT 02/M01 A3031 RMK A01 T00231014  RH  076%=      5-min Rain = 0
KUM1 191831Z 35009KT 02/M02 A3031 RMK A01 T00211017  RH  075%=      5-min Rain = 0
KUM1 191832Z 35009KT 02/M02 A3031 RMK A01 T00211018  RH  075%=      5-min Rain = 0
KUM1 191833Z 35008KT 02/M02 A3031 RMK A01 T00221016  RH  076%=      5-min Rain = 0
KUM1 191834Z 34010KT 02/M02 A3031 RMK A01 T00231016  RH  076%=      5-min Rain = 0
KUM1 191835Z 34011KT 02/M02 A3031 RMK A01 T00231016  RH  075%=      5-min Rain = 0
KUM1 191836Z 34011KT 02/M02 A3031 RMK A01 T00231017  RH  074%=      5-min Rain = 0
KUM1 191837Z 33010KT 02/M02 A3031 RMK A01 T00231020  RH  074%=      5-min Rain = 0
KUM1 191838Z 34008KT 02/M02 A3031 RMK A01 T00221020  RH  074%=      5-min Rain = 0
KUM1 191839Z 35008KT 02/M02 A3031 RMK A01 T00231017  RH  075%=      5-min Rain = 0
KUM1 191840Z 34008KT 02/M02 A303 RMK A01 T00241015  RH  075%=      5-min Rain = 0
KUM1 191841Z 34009KT 02/M02 A303 RMK A01 T00241018  RH  074%=      5-min Rain = 0
KUM1 191842Z 35009KT 02/M02 A303 RMK A01 T00241017  RH  074%=      5-min Rain = 0
KUM1 191843Z 35009KT 03/M02 A303 RMK A01 T00251015  RH  075%=      5-min Rain = 0
KUM1 191844Z 34007KT 03/M01 A303 RMK A01 T00271012  RH  076%=      5-min Rain = 0
KUM1 191845Z 35008KT 03/M01 A303 RMK A01 T00281013  RH  075%=      5-min Rain = 0
KUM1 191846Z 35008KT 03/M01 A303 RMK A01 T00271013  RH  075%=      5-min Rain = 0
KUM1 191847Z 34010KT 03/M01 A303 RMK A01 T00281011  RH  075%=      5-min Rain = 0
KUM1 191848Z 34009KT 03/M01 A303 RMK A01 T00291013  RH  074%=      5-min Rain = 0
KUM1 191849Z 33009KT 03/M01 A303 RMK A01 T00281013  RH  074%=      5-min Rain = 0
KUM1 191850Z 33008KT 03/M01 A303 RMK A01 T00281014  RH  074%=      5-min Rain = 0
KUM1 191851Z 34008KT 03/M01 A303 RMK A01 T00281010  RH  076%=      5-min Rain = 0
KUM1 191852Z 34008KT 03/M01 A303 RMK A01 T00291013  RH  074%=      5-min Rain = 0
KUM1 191853Z 34009KT 03/M01 A303 RMK A01 T00291013  RH  074%=      5-min Rain = 0
KUM1 191854Z 33009KT 03/M01 A303 RMK A01 T00291011  RH  075%=      5-min Rain = 0
KUM1 191855Z 34011KT 03/M01 A303 RMK A01 T00301011  RH  075%=      5-min Rain = 0
KUM1 191856Z 35010KT 03/M01 A303 RMK A01 T00301011  RH  074%=      5-min Rain = 0
KUM1 191857Z 34009KT 03/M01 A303 RMK A01 T00301011  RH  074%=      5-min Rain = 0
KUM1 191858Z 33011KT 03/M01 A303 RMK A01 T00301011  RH  074%=      5-min Rain = 0
KUM1 191859Z 34010KT 03/M01 A303 RMK A01 T00311012  RH  073%=      5-min Rain = 0
KUM1 191900Z 33009KT 03/M01 A303 RMK A01 T00311010  RH  075%=      5-min Rain = 0
KUM1 191901Z 33009KT 03/M01 A303 RMK A01 T00321009  RH  074%=      5-min Rain = 0
KUM1 191902Z 32010KT 03/M01 A303 RMK A01 T00321010  RH  074%=      5-min Rain = 0
KUM1 191903Z 35010KT 03/M01 A303 RMK A01 T00321007  RH  075%=      5-min Rain = 0
KUM1 191904Z 35011KT 03/M01 A303 RMK A01 T00341006  RH  075%=      5-min Rain = 0
KUM1 191905Z 34009KT 03/M01 A303 RMK A01 T00341008  RH  074%=      5-min Rain = 0
KUM1 191906Z 33010KT 04/M01 A303 RMK A01 T00351008  RH  074%=      5-min Rain = 0
KUM1 191907Z 33009KT 03/M01 A303 RMK A01 T00341012  RH  072%=      5-min Rain = 0
KUM1 191908Z 33010KT 03/M01 A303 RMK A01 T00331012  RH  072%=      5-min Rain = 0
KUM1 191909Z 32009KT 03/M01 A303 RMK A01 T00331011  RH  073%=      5-min Rain = 0
KUM1 191910Z 33010KT 04/M00 A303 RMK A01 T00361003  RH  075%=      5-min Rain = 0
KUM1 191911Z 32011KT 04/M01 A303 RMK A01 T00381007  RH  073%=      5-min Rain = 0
KUM1 191912Z 33011KT 04/M01 A303 RMK A01 T00381008  RH  072%=      5-min Rain = 0
KUM1 191913Z 34011KT 04/M01 A303 RMK A01 T00401005  RH  073%=      5-min Rain = 0
KUM1 191914Z 34010KT 04/M01 A303 RMK A01 T00411005  RH  072%=      5-min Rain = 0
KUM1 191915Z 33012KT 04/M01 A303 RMK A01 T00421005  RH  072%=      5-min Rain = 0
KUM1 191916Z 33013KT 04/M01 A303 RMK A01 T00421008  RH  070%=      5-min Rain = 0
KUM1 191917Z 33013KT 04/M01 A303 RMK A01 T00401014  RH  068%=      5-min Rain = 0
KUM1 191918Z 33012KT 04/M01 A303 RMK A01 T00401010  RH  070%=      5-min Rain = 0
KUM1 191919Z 33011KT 04/M01 A303 RMK A01 T00411007  RH  071%=      5-min Rain = 0
KUM1 191920Z 33013KT 04/M01 A303 RMK A01 T00431006  RH  070%=      5-min Rain = 0
KUM1 191921Z 33011KT 04/M01 A303 RMK A01 T00421010  RH  069%=      5-min Rain = 0
KUM1 191922Z 33012KT 04/M01 A303 RMK A01 T00421008  RH  070%=      5-min Rain = 0
KUM1 191923Z 33012KT 04/M01 A303 RMK A01 T00431006  RH  070%=      5-min Rain = 0
KUM1 191924Z 33015KT 05/M01 A3029 RMK A01 T00461006  RH  069%=      5-min Rain = 0
KUM1 191925Z 34012KT 05/M01 A3029 RMK A01 T00451009  RH  068%=      5-min Rain = 0
KUM1 191926Z 35012KT 05/M01 A3029 RMK A01 T00451010  RH  068%=      5-min Rain = 0
KUM1 191927Z 34011KT 05/M00 A3029 RMK A01 T00461003  RH  070%=      5-min Rain = 0
KUM1 191928Z 34012KT 05/M00 A3029 RMK A01 T00481003  RH  070%=      5-min Rain = 0
KUM1 191929Z 34012KT 05/M01 A3029 RMK A01 T00481009  RH  067%=      5-min Rain = 0
KUM1 191930Z 34014KT 05/M01 A3029 RMK A01 T00461012  RH  066%=      5-min Rain = 0
KUM1 191931Z 35012KT 05/M01 A3029 RMK A01 T00461011  RH  067%=      5-min Rain = 0
KUM1 191932Z 35012KT 05/M01 A3029 RMK A01 T00461010  RH  067%=      5-min Rain = 0
KUM1 191933Z 35012KT 05/M01 A3029 RMK A01 T00461009  RH  068%=      5-min Rain = 0
KUM1 191934Z 34012KT 05/M01 A3029 RMK A01 T00471009  RH  067%=      5-min Rain = 0
KUM1 191935Z 34013KT 05/M01 A3029 RMK A01 T00471012  RH  066%=      5-min Rain = 0
KUM1 191936Z 35013KT 05/M01 A3029 RMK A01 T00471012  RH  066%=      5-min Rain = 0
KUM1 191937Z 34014KT 05/M01 A3029 RMK A01 T00471011  RH  066%=      5-min Rain = 0
KUM1 191938Z 35012KT 05/M01 A3029 RMK A01 T00481010  RH  066%=      5-min Rain = 0
KUM1 191939Z 35014KT 05/M01 A3029 RMK A01 T00501009  RH  066%=      5-min Rain = 0
KUM1 191940Z 33012KT 05/M01 A3029 RMK A01 T00491012  RH  065%=      5-min Rain = 0
KUM1 191941Z 33012KT 05/M01 A3029 RMK A01 T00501009  RH  066%=      5-min Rain = 0
KUM1 191942Z 34014KT 05/M01 A3029 RMK A01 T00501013  RH  064%=      5-min Rain = 0
KUM1 191943Z 34013KT 05/M01 A3029 RMK A01 T00491013  RH  064%=      5-min Rain = 0
KUM1 191944Z 34012KT 05/M02 A3029 RMK A01 T00491015  RH  063%=      5-min Rain = 0
KUM1 191945Z 33015KT 05/M01 A3029 RMK A01 T00491013  RH  064%=      5-min Rain = 0
KUM1 191946Z 33015KT 05/M01 A3028 RMK A01 T00501013  RH  064%=      5-min Rain = 0
KUM1 191947Z 33013KT 05/M01 A3028 RMK A01 T00501014  RH  063%=      5-min Rain = 0
KUM1 191948Z 34011KT 05/M01 A3028 RMK A01 T00511012  RH  064%=      5-min Rain = 0
KUM1 191949Z 35013KT 05/M01 A3028 RMK A01 T00521007  RH  065%=      5-min Rain = 0
KUM1 191950Z 35014KT 05/M01 A3028 RMK A01 T00531007  RH  065%=      5-min Rain = 0
KUM1 191951Z 34013KT 05/M01 A3028 RMK A01 T00541008  RH  064%=      5-min Rain = 0
KUM1 191952Z 35009KT 05/M01 A3028 RMK A01 T00531010  RH  063%=      5-min Rain = 0
KUM1 191953Z 35013KT 05/M01 A3028 RMK A01 T00541007  RH  065%=      5-min Rain = 0
KUM1 191954Z 32011KT 05/M01 A3028 RMK A01 T00531011  RH  063%=      5-min Rain = 0
KUM1 191955Z 33011KT 05/M01 A3028 RMK A01 T00531012  RH  063%=      5-min Rain = 0
KUM1 191956Z 33012KT 05/M01 A3028 RMK A01 T00521013  RH  063%=      5-min Rain = 0
KUM1 191957Z 34013KT 05/M02 A3028 RMK A01 T00511017  RH  061%=      5-min Rain = 0
KUM1 191958Z 34013KT 05/M01 A3028 RMK A01 T00521012  RH  063%=      5-min Rain = 0
KUM1 191959Z 34013KT 05/M01 A3028 RMK A01 T00531013  RH  062%=      5-min Rain = 0
KUM1 192000Z 34012KT 05/M01 A3028 RMK A01 T00531013  RH  062%=      5-min Rain = 0
KUM1 192001Z 34014KT 06/M01 A3028 RMK A01 T00551008  RH  064%=      5-min Rain = 0
KUM1 192002Z 35012KT 06/M01 A3028 RMK A01 T00561010  RH  063%=      5-min Rain = 0
KUM1 192003Z 35012KT 06/M01 A3028 RMK A01 T00551011  RH  063%=      5-min Rain = 0
KUM1 192004Z 35013KT 06/M01 A3028 RMK A01 T00561008  RH  063%=      5-min Rain = 0
KUM1 192005Z 35012KT 06/M01 A3028 RMK A01 T00561011  RH  062%=      5-min Rain = 0
KUM1 192006Z 35010KT 06/M01 A3028 RMK A01 T00561011  RH  062%=      5-min Rain = 0
KUM1 192007Z 34014KT 06/M01 A3027 RMK A01 T00561009  RH  063%=      5-min Rain = 0
KUM1 192008Z 33015KT 06/M01 A3027 RMK A01 T00571011  RH  062%=      5-min Rain = 0
KUM1 192009Z 34013KT 06/M01 A3027 RMK A01 T00571010  RH  062%=      5-min Rain = 0
KUM1 192010Z 34012KT 06/M01 A3027 RMK A01 T00581010  RH  062%=      5-min Rain = 0
KUM1 192011Z 34015KT 06/M01 A3027 RMK A01 T00581011  RH  061%=      5-min Rain = 0
KUM1 192012Z 34013KT 06/M01 A3027 RMK A01 T00581010  RH  061%=      5-min Rain = 0
KUM1 192013Z 33013KT 06/M01 A3027 RMK A01 T00591011  RH  061%=      5-min Rain = 0
KUM1 192014Z 34012KT 06/M01 A3027 RMK A01 T00591012  RH  061%=      5-min Rain = 0
KUM1 192015Z 34011KT 06/M01 A3027 RMK A01 T00581010  RH  062%=      5-min Rain = 0
KUM1 192016Z 33011KT 06/M01 A3027 RMK A01 T00591012  RH  061%=      5-min Rain = 0
KUM1 192017Z 33014KT 06/M01 A3027 RMK A01 T00581011  RH  061%=      5-min Rain = 0
KUM1 192018Z 34014KT 06/M01 A3027 RMK A01 T00601009  RH  061%=      5-min Rain = 0
KUM1 192019Z 35014KT 06/M01 A3027 RMK A01 T00611012  RH  060%=      5-min Rain = 0
KUM1 192020Z 34014KT 06/M01 A3027 RMK A01 T00601012  RH  060%=      5-min Rain = 0
KUM1 192021Z 34013KT 06/M01 A3027 RMK A01 T00611011  RH  060%=      5-min Rain = 0
KUM1 192022Z 35012KT 06/M02 A3027 RMK A01 T00601015  RH  059%=      5-min Rain = 0
KUM1 192023Z 34013KT 06/M01 A3027 RMK A01 T00591013  RH  060%=      5-min Rain = 0
KUM1 192024Z 33015KT 06/M01 A3027 RMK A01 T00611010  RH  060%=      5-min Rain = 0
KUM1 192025Z 33013KT 06/M01 A3027 RMK A01 T00621012  RH  059%=      5-min Rain = 0
KUM1 192026Z 33014KT 06/M02 A3027 RMK A01 T00611017  RH  057%=      5-min Rain = 0
KUM1 192027Z 33013KT 06/M01 A3027 RMK A01 T00611014  RH  059%=      5-min Rain = 0
KUM1 192028Z 34011KT 06/M01 A3027 RMK A01 T00621008  RH  061%=      5-min Rain = 0
KUM1 192029Z 35011KT 06/M01 A3027 RMK A01 T00641006  RH  061%=      5-min Rain = 0
KUM1 192030Z 36014KT 07/M01 A3027 RMK A01 T00651008  RH  060%=      5-min Rain = 0
KUM1 192031Z 35011KT 06/M02 A3027 RMK A01 T00631016  RH  057%=      5-min Rain = 0
KUM1 192032Z 35010KT 06/M02 A3027 RMK A01 T00621015  RH  058%=      5-min Rain = 0
KUM1 192033Z 35011KT 06/M01 A3027 RMK A01 T00631010  RH  060%=      5-min Rain = 0
KUM1 192034Z 35013KT 06/M01 A3027 RMK A01 T00641010  RH  059%=      5-min Rain = 0
KUM1 192035Z 35014KT 06/M02 A3026 RMK A01 T00641016  RH  056%=      5-min Rain = 0
KUM1 192036Z 36013KT 06/M02 A3026 RMK A01 T00641020  RH  055%=      5-min Rain = 0
KUM1 192037Z 34012KT 06/M01 A3026 RMK A01 T00641014  RH  057%=      5-min Rain = 0
KUM1 192038Z 34012KT 07/M01 A3026 RMK A01 T00661014  RH  057%=      5-min Rain = 0
KUM1 192039Z 33011KT 07/M01 A3026 RMK A01 T00661011  RH  058%=      5-min Rain = 0
KUM1 192040Z 34011KT 07/M02 A3026 RMK A01 T00661015  RH  056%=      5-min Rain = 0
KUM1 192041Z 35011KT 07/M02 A3026 RMK A01 T00661017  RH  056%=      5-min Rain = 0
KUM1 192042Z 34011KT 07/M02 A3026 RMK A01 T00661015  RH  056%=      5-min Rain = 0
KUM1 192043Z 34015KT 07/M02 A3026 RMK A01 T00671015  RH  056%=      5-min Rain = 0
KUM1 192044Z 35012KT 07/M02 A3026 RMK A01 T00671018  RH  055%=      5-min Rain = 0
KUM1 192045Z 35012KT 07/M02 A3026 RMK A01 T00671018  RH  055%=      5-min Rain = 0
KUM1 192046Z 34010KT 07/M01 A3026 RMK A01 T00671014  RH  056%=      5-min Rain = 0
KUM1 192047Z 33010KT 07/M01 A3026 RMK A01 T00691011  RH  057%=      5-min Rain = 0
KUM1 192048Z 33011KT 07/M02 A3026 RMK A01 T00691015  RH  055%=      5-min Rain = 0
KUM1 192049Z 34013KT 07/M02 A3026 RMK A01 T00681016  RH  055%=      5-min Rain = 0
KUM1 192050Z 34013KT 07/M02 A3026 RMK A01 T00671019  RH  054%=      5-min Rain = 0
KUM1 192051Z 34012KT 07/M02 A3026 RMK A01 T00661018  RH  055%=      5-min Rain = 0
KUM1 192052Z 33010KT 07/M02 A3026 RMK A01 T00661016  RH  056%=      5-min Rain = 0
KUM1 192053Z 35011KT 07/M02 A3026 RMK A01 T00671016  RH  055%=      5-min Rain = 0
KUM1 192054Z 33009KT 07/M02 A3026 RMK A01 T00671020  RH  054%=      5-min Rain = 0
KUM1 192055Z 34008G13KT 07/M02 A3026 RMK A01 T00661016  RH  056%=      5-min Rain = 0
KUM1 192056Z 35011KT 07/M02 A3026 RMK A01 T00671016  RH  055%=      5-min Rain = 0
KUM1 192057Z 35008KT 07/M02 A3026 RMK A01 T00681017  RH  055%=      5-min Rain = 0
KUM1 192058Z 35009KT 07/M02 A3026 RMK A01 T00681020  RH  054%=      5-min Rain = 0
KUM1 192059Z 34009KT 07/M02 A3026 RMK A01 T00681019  RH  054%=      5-min Rain = 0
KUM1 192100Z 35009KT 07/M02 A3026 RMK A01 T00691015  RH  055%=      5-min Rain = 0
KUM1 192101Z 00011KT 07/M02 A3026 RMK A01 T00701015  RH  055%=      5-min Rain = 0
KUM1 192102Z 36012KT 07/M02 A3026 RMK A01 T00691020  RH  053%=      5-min Rain = 0
KUM1 192103Z 35011KT 07/M02 A3026 RMK A01 T00681021  RH  053%=      5-min Rain = 0
KUM1 192104Z 35008KT 07/M02 A3026 RMK A01 T00671023  RH  053%=      5-min Rain = 0
KUM1 192105Z 35009KT 07/M02 A3026 RMK A01 T00661019  RH  055%=      5-min Rain = 0
KUM1 192106Z 36008KT 07/M02 A3026 RMK A01 T00681020  RH  053%=      5-min Rain = 0
KUM1 192107Z 00008KT 07/M02 A3026 RMK A01 T00681024  RH  052%=      5-min Rain = 0
KUM1 192108Z 34009KT 07/M02 A3026 RMK A01 T00671023  RH  053%=      5-min Rain = 0
KUM1 192109Z 34010KT 07/M02 A3026 RMK A01 T00671024  RH  052%=      5-min Rain = 0
KUM1 192110Z 33012KT 07/M02 A3026 RMK A01 T00691015  RH  055%=      5-min Rain = 0
KUM1 192111Z 34010KT 07/M02 A3026 RMK A01 T00701020  RH  053%=      5-min Rain = 0
KUM1 192112Z 35010KT 07/M02 A3026 RMK A01 T00711015  RH  054%=      5-min Rain = 0
KUM1 192113Z 36012KT 07/M02 A3026 RMK A01 T00721015  RH  054%=      5-min Rain = 0
KUM1 192114Z 34010KT 07/M02 A3025 RMK A01 T00721017  RH  053%=      5-min Rain = 0
KUM1 192115Z 33010KT 07/M02 A3025 RMK A01 T00721018  RH  053%=      5-min Rain = 0
KUM1 192116Z 34011KT 07/M02 A3025 RMK A01 T00711015  RH  054%=      5-min Rain = 0
KUM1 192117Z 34010KT 07/M02 A3025 RMK A01 T00721018  RH  053%=      5-min Rain = 0
KUM1 192118Z 34010KT 07/M02 A3025 RMK A01 T00721017  RH  053%=      5-min Rain = 0
KUM1 192119Z 34009KT 07/M02 A3025 RMK A01 T00711022  RH  052%=      5-min Rain = 0
KUM1 192120Z 34009KT 07/M02 A3025 RMK A01 T00701024  RH  051%=      5-min Rain = 0
KUM1 192121Z 35007KT 07/M02 A3025 RMK A01 T00701020  RH  053%=      5-min Rain = 0
KUM1 192122Z 33007KT 07/M02 A3025 RMK A01 T00711019  RH  053%=      5-min Rain = 0
KUM1 192123Z 32006KT 07/M02 A3025 RMK A01 T00711021  RH  052%=      5-min Rain = 0
KUM1 192124Z 33009KT 07/M02 A3025 RMK A01 T00721015  RH  054%=      5-min Rain = 0
KUM1 192125Z 34009KT 07/M02 A3025 RMK A01 T00731017  RH  053%=      5-min Rain = 0
KUM1 192126Z 34009KT 07/M02 A3025 RMK A01 T00731022  RH  051%=      5-min Rain = 0
KUM1 192127Z 34009KT 07/M02 A3025 RMK A01 T00711022  RH  051%=      5-min Rain = 0
KUM1 192128Z 33009KT 07/M02 A3025 RMK A01 T00721015  RH  054%=      5-min Rain = 0
KUM1 192129Z 34008KT 07/M01 A3025 RMK A01 T00731014  RH  054%=      5-min Rain = 0
KUM1 192130Z 35008KT 07/M01 A3026 RMK A01 T00741013  RH  054%=      5-min Rain = 0
KUM1 192131Z 35008KT 08/M02 A3026 RMK A01 T00751019  RH  051%=      5-min Rain = 0
KUM1 192132Z 35007KT 07/M02 A3026 RMK A01 T00731021  RH  051%=      5-min Rain = 0
KUM1 192133Z 35008KT 07/M02 A3026 RMK A01 T00731020  RH  052%=      5-min Rain = 0
KUM1 192134Z 36011KT 07/M02 A3026 RMK A01 T00731018  RH  052%=      5-min Rain = 0
KUM1 192135Z 35011KT 07/M02 A3026 RMK A01 T00741020  RH  051%=      5-min Rain = 0
KUM1 192136Z 34009KT 07/M02 A3026 RMK A01 T00731018  RH  052%=      5-min Rain = 0
KUM1 192137Z 35009KT 07/M02 A3026 RMK A01 T00741016  RH  053%=      5-min Rain = 0
KUM1 192138Z 35009KT 08/M02 A3026 RMK A01 T00751018  RH  052%=      5-min Rain = 0
KUM1 192139Z 34008KT 07/M02 A3026 RMK A01 T00741020  RH  051%=      5-min Rain = 0
KUM1 192140Z 34007KT 08/M02 A3026 RMK A01 T00751019  RH  052%=      5-min Rain = 0
KUM1 192141Z 35007KT 07/M02 A3026 RMK A01 T00741023  RH  050%=      5-min Rain = 0
KUM1 192142Z 34006KT 07/M02 A3026 RMK A01 T00731024  RH  050%=      5-min Rain = 0
KUM1 192143Z 34007KT 07/M02 A3026 RMK A01 T00731021  RH  051%=      5-min Rain = 0
KUM1 192144Z 33006KT 07/M02 A3026 RMK A01 T00731020  RH  052%=      5-min Rain = 0
KUM1 192145Z 34006KT 07/M02 A3026 RMK A01 T00731022  RH  051%=      5-min Rain = 0
KUM1 192146Z 33007KT 07/M01 A3025 RMK A01 T00741013  RH  054%=      5-min Rain = 0
KUM1 192147Z 33007KT 08/M01 A3025 RMK A01 T00761014  RH  053%=      5-min Rain = 0
KUM1 192148Z 34007KT 08/M02 A3025 RMK A01 T00751023  RH  050%=      5-min Rain = 0
KUM1 192149Z 36009KT 07/M02 A3026 RMK A01 T00741020  RH  051%=      5-min Rain = 0
KUM1 192150Z 00008KT 07/M02 A3026 RMK A01 T00741021  RH  051%=      5-min Rain = 0
KUM1 192151Z 36007KT 07/M02 A3026 RMK A01 T00741024  RH  050%=      5-min Rain = 0
KUM1 192152Z 01006KT 07/M03 A3026 RMK A01 T00731025  RH  050%=      5-min Rain = 0
KUM1 192153Z 02005KT 07/M02 A3026 RMK A01 T00741022  RH  051%=      5-min Rain = 0
KUM1 192154Z 01005KT 07/M02 A3026 RMK A01 T00741024  RH  050%=      5-min Rain = 0
KUM1 192155Z 35006KT 07/M02 A3026 RMK A01 T00741024  RH  050%=      5-min Rain = 0
KUM1 192156Z 35006KT 07/M02 A3026 RMK A01 T00741024  RH  050%=      5-min Rain = 0
KUM1 192157Z 35005KT 07/M02 A3026 RMK A01 T00741020  RH  051%=      5-min Rain = 0
KUM1 192158Z 35007KT 08/M01 A3026 RMK A01 T00761014  RH  053%=      5-min Rain = 0
KUM1 192159Z 00008KT 08/M02 A3026 RMK A01 T00771016  RH  052%=      5-min Rain = 0
KUM1 192200Z 35006KT 08/M02 A3026 RMK A01 T00771015  RH  052%=      5-min Rain = 0
KUM1 192201Z 00007KT 08/M02 A3026 RMK A01 T00771019  RH  050%=      5-min Rain = 0
KUM1 192202Z 00006KT 08/M03 A3026 RMK A01 T00761026  RH  048%=      5-min Rain = 0
KUM1 192203Z 36007KT 08/M02 A3026 RMK A01 T00751022  RH  050%=      5-min Rain = 0
KUM1 192204Z 35008KT 08/M02 A3026 RMK A01 T00751024  RH  049%=      5-min Rain = 0
KUM1 192205Z 36005KT 08/M02 A3026 RMK A01 T00751024  RH  050%=      5-min Rain = 0
KUM1 192206Z 01006KT 08/M02 A3026 RMK A01 T00751024  RH  050%=      5-min Rain = 0
KUM1 192207Z 35006KT 08/M02 A3026 RMK A01 T00761021  RH  051%=      5-min Rain = 0
KUM1 192208Z 35007KT 08/M02 A3026 RMK A01 T00761023  RH  050%=      5-min Rain = 0
KUM1 192209Z 36005KT 08/M02 A3026 RMK A01 T00761024  RH  049%=      5-min Rain = 0
KUM1 192210Z 34006KT 08/M02 A3026 RMK A01 T00751024  RH  049%=      5-min Rain = 0
KUM1 192211Z 35005KT 08/M02 A3026 RMK A01 T00751022  RH  050%=      5-min Rain = 0
KUM1 192212Z 32005KT 08/M02 A3026 RMK A01 T00761021  RH  050%=      5-min Rain = 0
KUM1 192213Z 32007KT 08/M02 A3026 RMK A01 T00761021  RH  050%=      5-min Rain = 0
KUM1 192214Z 32005KT 08/M02 A3026 RMK A01 T00761023  RH  050%=      5-min Rain = 0
KUM1 192215Z 33006KT 08/M02 A3026 RMK A01 T00761024  RH  049%=      5-min Rain = 0
KUM1 192216Z 34005KT 08/M03 A3026 RMK A01 T00751025  RH  049%=      5-min Rain = 0
KUM1 192217Z 34006KT 08/M02 A3026 RMK A01 T00751023  RH  050%=      5-min Rain = 0
KUM1 192218Z 00006KT 08/M03 A3026 RMK A01 T00751026  RH  049%=      5-min Rain = 0
KUM1 192219Z 00007KT 08/M02 A3026 RMK A01 T00751024  RH  049%=      5-min Rain = 0
KUM1 192220Z 36006KT 08/M02 A3026 RMK A01 T00751023  RH  050%=      5-min Rain = 0
KUM1 192221Z 00004KT 08/M03 A3026 RMK A01 T00761026  RH  049%=      5-min Rain = 0
KUM1 192222Z 36003KT 08/M03 A3026 RMK A01 T00751030  RH  047%=      5-min Rain = 0
KUM1 192223Z 01003KT 08/M03 A3026 RMK A01 T00751027  RH  048%=      5-min Rain = 0
KUM1 192224Z 01003KT 08/M03 A3026 RMK A01 T00751030  RH  047%=      5-min Rain = 0
KUM1 192225Z 01002KT 08/M03 A3026 RMK A01 T00751027  RH  048%=      5-min Rain = 0
KUM1 192226Z 01003KT 08/M02 A3026 RMK A01 T00761023  RH  049%=      5-min Rain = 0
KUM1 192227Z 00002KT 08/M02 A3026 RMK A01 T00771024  RH  049%=      5-min Rain = 0
KUM1 192228Z 36004KT 08/M03 A3026 RMK A01 T00771026  RH  048%=      5-min Rain = 0
KUM1 192229Z 01006KT 08/M02 A3026 RMK A01 T00771022  RH  049%=      5-min Rain = 0
KUM1 192230Z 00006KT 08/M02 A3026 RMK A01 T00771023  RH  049%=      5-min Rain = 0
KUM1 192231Z 34006KT 08/M02 A3026 RMK A01 T00771017  RH  051%=      5-min Rain = 0
KUM1 192232Z 35006KT 08/M02 A3026 RMK A01 T00771020  RH  050%=      5-min Rain = 0
KUM1 192233Z 35004KT 08/M02 A3026 RMK A01 T00771024  RH  049%=      5-min Rain = 0
KUM1 192234Z 36004KT 08/M02 A3026 RMK A01 T00771021  RH  050%=      5-min Rain = 0
KUM1 192235Z 35005KT 08/M02 A3026 RMK A01 T00771020  RH  050%=      5-min Rain = 0
KUM1 192236Z 34005KT 08/M02 A3026 RMK A01 T00781022  RH  049%=      5-min Rain = 0
KUM1 192237Z 34004KT 08/M03 A3026 RMK A01 T00761027  RH  048%=      5-min Rain = 0
KUM1 192238Z 36003KT 08/M03 A3026 RMK A01 T00761027  RH  048%=      5-min Rain = 0
KUM1 192239Z 36003KT 08/M03 A3026 RMK A01 T00761025  RH  049%=      5-min Rain = 0
KUM1 192240Z 01005KT 08/M02 A3026 RMK A01 T00771022  RH  050%=      5-min Rain = 0
KUM1 192241Z 35004KT 08/M02 A3026 RMK A01 T00771021  RH  050%=      5-min Rain = 0
KUM1 192242Z 36004KT 08/M02 A3026 RMK A01 T00771020  RH  050%=      5-min Rain = 0
KUM1 192243Z 34003KT 08/M02 A3026 RMK A01 T00771018  RH  051%=      5-min Rain = 0
KUM1 192244Z 34001KT 08/M03 A3026 RMK A01 T00781025  RH  048%=      5-min Rain = 0
KUM1 192245Z 03002KT 08/M02 A3026 RMK A01 T00781023  RH  049%=      5-min Rain = 0
KUM1 192246Z 04003KT 08/M02 A3026 RMK A01 T00781020  RH  050%=      5-min Rain = 0
KUM1 192247Z 04003KT 08/M02 A3026 RMK A01 T00781023  RH  049%=      5-min Rain = 0
KUM1 192248Z 02002KT 08/M02 A3026 RMK A01 T00781023  RH  049%=      5-min Rain = 0
KUM1 192249Z 03003KT 08/M02 A3026 RMK A01 T00781022  RH  049%=      5-min Rain = 0
KUM1 192250Z 01004KT 08/M02 A3026 RMK A01 T00781022  RH  049%=      5-min Rain = 0
KUM1 192251Z 01003KT 08/M03 A3026 RMK A01 T00771027  RH  048%=      5-min Rain = 0
KUM1 192252Z 02002KT 08/M03 A3026 RMK A01 T00761028  RH  048%=      5-min Rain = 0
KUM1 192253Z 00003KT 08/M03 A3026 RMK A01 T00771026  RH  048%=      5-min Rain = 0
KUM1 192254Z 01003KT 08/M02 A3026 RMK A01 T00771021  RH  050%=      5-min Rain = 0
KUM1 192255Z 03003KT 08/M02 A3026 RMK A01 T00771021  RH  050%=      5-min Rain = 0
KUM1 192256Z 03003KT 08/M03 A3026 RMK A01 T00771025  RH  048%=      5-min Rain = 0
KUM1 192257Z 35004KT 08/M03 A3026 RMK A01 T00771025  RH  049%=      5-min Rain = 0
KUM1 192258Z 35002KT 08/M03 A3026 RMK A01 T00771027  RH  048%=      5-min Rain = 0
KUM1 192259Z 36002KT 08/M03 A3026 RMK A01 T00761028  RH  048%=      5-min Rain = 0
KUM1 192300Z 36002KT 08/M03 A3026 RMK A01 T00761026  RH  048%=      5-min Rain = 0
KUM1 192301Z 00002KT 08/M03 A3026 RMK A01 T00761026  RH  048%=      5-min Rain = 0
KUM1 192302Z 36003KT 08/M02 A3026 RMK A01 T00771023  RH  049%=      5-min Rain = 0
KUM1 192303Z 35002KT 08/M03 A3026 RMK A01 T00771026  RH  048%=      5-min Rain = 0
KUM1 192304Z 35001KT 08/M03 A3026 RMK A01 T00771028  RH  047%=      5-min Rain = 0
KUM1 192305Z 35002KT 08/M03 A3026 RMK A01 T00771027  RH  048%=      5-min Rain = 0
KUM1 192306Z 36001KT 08/M03 A3026 RMK A01 T00771026  RH  048%=      5-min Rain = 0
KUM1 192307Z 36002KT 08/M03 A3026 RMK A01 T00771026  RH  048%=      5-min Rain = 0
KUM1 192308Z 36003KT 08/M02 A3026 RMK A01 T00771024  RH  049%=      5-min Rain = 0
KUM1 192309Z 36002KT 08/M03 A3026 RMK A01 T00761027  RH  048%=      5-min Rain = 0
KUM1 192310Z 35002KT 08/M03 A3026 RMK A01 T00761029  RH  047%=      5-min Rain = 0
KUM1 192311Z 00002KT 08/M03 A3026 RMK A01 T00761029  RH  048%=      5-min Rain = 0
KUM1 192312Z 00000KT 08/M02 A3026 RMK A01 T00761024  RH  049%=      5-min Rain = 0
KUM1 192313Z 36001KT 08/M02 A3027 RMK A01 T00761017  RH  052%=      5-min Rain = 0
KUM1 192314Z 02001KT 08/M03 A3027 RMK A01 T00771026  RH  048%=      5-min Rain = 0
KUM1 192315Z 04002KT 08/M03 A3027 RMK A01 T00771026  RH  048%=      5-min Rain = 0
KUM1 192316Z 06003KT 08/M03 A3027 RMK A01 T00761026  RH  048%=      5-min Rain = 0
KUM1 192317Z 07003KT 08/M02 A3027 RMK A01 T00751024  RH  049%=      5-min Rain = 0
KUM1 192318Z 08002KT 08/M02 A3027 RMK A01 T00751021  RH  051%=      5-min Rain = 0
KUM1 192319Z 08002KT 07/M02 A3027 RMK A01 T00741022  RH  050%=      5-min Rain = 0
KUM1 192320Z 09001KT 07/M02 A3027 RMK A01 T00741019  RH  052%=      5-min Rain = 0
KUM1 192321Z 08002KT 07/M02 A3027 RMK A01 T00741021  RH  051%=      5-min Rain = 0
KUM1 192322Z 08003KT 07/M02 A3027 RMK A01 T00741023  RH  050%=      5-min Rain = 0
KUM1 192323Z 08002KT 07/M03 A3027 RMK A01 T00741026  RH  049%=      5-min Rain = 0
KUM1 192324Z 09003KT 07/M03 A3027 RMK A01 T00731027  RH  049%=      5-min Rain = 0
KUM1 192325Z 08002KT 07/M03 A3027 RMK A01 T00721026  RH  049%=      5-min Rain = 0
KUM1 192326Z 09002KT 07/M03 A3027 RMK A01 T00721025  RH  050%=      5-min Rain = 0
KUM1 192327Z 08002KT 07/M02 A3027 RMK A01 T00721023  RH  051%=      5-min Rain = 0
KUM1 192328Z 09002KT 07/M03 A3026 RMK A01 T00721026  RH  050%=      5-min Rain = 0
KUM1 192329Z 08003KT 07/M03 A3026 RMK A01 T00711025  RH  050%=      5-min Rain = 0
KUM1 192330Z 08004KT 07/M02 A3026 RMK A01 T00711023  RH  051%=      5-min Rain = 0
KUM1 192331Z 08004KT 07/M02 A3026 RMK A01 T00701023  RH  052%=      5-min Rain = 0
KUM1 192332Z 08004KT 07/M02 A3026 RMK A01 T00691024  RH  051%=      5-min Rain = 0
KUM1 192333Z 08004KT 07/M03 A3026 RMK A01 T00691025  RH  051%=      5-min Rain = 0
KUM1 192334Z 07004KT 07/M02 A3026 RMK A01 T00691023  RH  052%=      5-min Rain = 0
KUM1 192335Z 08004KT 07/M02 A3026 RMK A01 T00681023  RH  052%=      5-min Rain = 0
KUM1 192336Z 08003KT 07/M02 A3026 RMK A01 T00671023  RH  052%=      5-min Rain = 0
KUM1 192337Z 08003KT 07/M02 A3026 RMK A01 T00671024  RH  052%=      5-min Rain = 0
KUM1 192338Z 08003KT 07/M02 A3026 RMK A01 T00671024  RH  052%=      5-min Rain = 0
KUM1 192339Z 08004KT 07/M03 A3026 RMK A01 T00661025  RH  052%=      5-min Rain = 0
KUM1 192340Z 08003KT 07/M02 A3026 RMK A01 T00661024  RH  052%=      5-min Rain = 0
KUM1 192341Z 08003KT 07/M03 A3026 RMK A01 T00651025  RH  052%=      5-min Rain = 0
KUM1 192342Z 08003KT 07/M02 A3026 RMK A01 T00651024  RH  053%=      5-min Rain = 0
KUM1 192343Z 08004KT 06/M02 A3026 RMK A01 T00641023  RH  054%=      5-min Rain = 0
KUM1 192344Z 08004KT 06/M02 A3026 RMK A01 T00631023  RH  054%=      5-min Rain = 0
KUM1 192345Z 08004KT 06/M02 A3026 RMK A01 T00621024  RH  054%=      5-min Rain = 0
KUM1 192346Z 08004KT 06/M02 A3026 RMK A01 T00611023  RH  055%=      5-min Rain = 0
KUM1 192347Z 07004KT 06/M02 A3026 RMK A01 T00611024  RH  055%=      5-min Rain = 0
KUM1 192348Z 07004KT 06/M02 A3026 RMK A01 T00601023  RH  055%=      5-min Rain = 0
KUM1 192349Z 07004KT 06/M02 A3026 RMK A01 T00601021  RH  056%=      5-min Rain = 0
KUM1 192350Z 07005KT 06/M02 A3026 RMK A01 T00581020  RH  057%=      5-min Rain = 0
KUM1 192351Z 07005KT 06/M02 A3026 RMK A01 T00561020  RH  058%=      5-min Rain = 0
KUM1 192352Z 07005KT 06/M02 A3026 RMK A01 T00551020  RH  058%=      5-min Rain = 0
KUM1 192353Z 07006KT 05/M02 A3026 RMK A01 T00541019  RH  059%=      5-min Rain = 0
KUM1 192354Z 07005KT 05/M02 A3026 RMK A01 T00521019  RH  060%=      5-min Rain = 0
KUM1 192355Z 06005KT 05/M02 A3026 RMK A01 T00511018  RH  061%=      5-min Rain = 0
KUM1 192356Z 07005KT 05/M02 A3026 RMK A01 T00501017  RH  062%=      5-min Rain = 0
KUM1 192357Z 07006KT 05/M02 A3026 RMK A01 T00481017  RH  063%=      5-min Rain = 0
KUM1 192358Z 07005KT 05/M02 A3026 RMK A01 T00471017  RH  063%=      5-min Rain = 0
KUM1 192359Z 07005KT 05/M02 A3026 RMK A01 T00461017  RH  063%=      5-min Rain = 0
KUM1 200000Z 07005KT 05/M02 A3026 RMK A01 T00461017  RH  064%=      5-min Rain = 0
KUM1 200001Z 07005KT 05/M02 A3026 RMK A01 T00451016  RH  065%=      5-min Rain = 0
KUM1 200002Z 07004KT 04/M02 A3026 RMK A01 T00441016  RH  065%=      5-min Rain = 0
KUM1 200003Z 07004KT 04/M02 A3026 RMK A01 T00431015  RH  066%=      5-min Rain = 0
KUM1 200004Z 07004KT 04/M02 A3026 RMK A01 T00431015  RH  066%=      5-min Rain = 0
KUM1 200005Z 07004KT 04/M02 A3026 RMK A01 T00421015  RH  067%=      5-min Rain = 0
KUM1 200006Z 07004KT 04/M01 A3026 RMK A01 T00421014  RH  067%=      5-min Rain = 0
KUM1 200007Z 07004KT 04/M01 A3026 RMK A01 T00421014  RH  067%=      5-min Rain = 0
KUM1 200008Z 07004KT 04/M01 A3026 RMK A01 T00421014  RH  067%=      5-min Rain = 0
KUM1 200009Z 08004KT 04/M01 A3026 RMK A01 T00421014  RH  067%=      5-min Rain = 0
KUM1 200010Z 07004KT 04/M01 A3026 RMK A01 T00421013  RH  067%=      5-min Rain = 0
KUM1 200011Z 07005KT 04/M01 A3026 RMK A01 T00411014  RH  068%=      5-min Rain = 0
KUM1 200012Z 07005KT 04/M02 A3026 RMK A01 T00401015  RH  067%=      5-min Rain = 0
KUM1 200013Z 07005KT 04/M02 A3026 RMK A01 T00401016  RH  067%=      5-min Rain = 0
KUM1 200014Z 07005KT 04/M02 A3026 RMK A01 T00401017  RH  066%=      5-min Rain = 0
KUM1 200015Z 07005KT 04/M02 A3026 RMK A01 T00401017  RH  066%=      5-min Rain = 0
KUM1 200016Z 07005KT 04/M02 A3026 RMK A01 T00401018  RH  066%=      5-min Rain = 0
KUM1 200017Z 07005KT 04/M02 A3026 RMK A01 T00391019  RH  066%=      5-min Rain = 0
KUM1 200018Z 06005KT 04/M02 A3026 RMK A01 T00391020  RH  066%=      5-min Rain = 0
KUM1 200019Z 06005KT 04/M02 A3026 RMK A01 T00381020  RH  065%=      5-min Rain = 0
KUM1 200020Z 06005KT 04/M02 A3026 RMK A01 T00381020  RH  066%=      5-min Rain = 0
KUM1 200021Z 06005KT 04/M02 A3026 RMK A01 T00361021  RH  066%=      5-min Rain = 0
KUM1 200022Z 06006KT 04/M02 A3026 RMK A01 T00361021  RH  066%=      5-min Rain = 0
KUM1 200023Z 06006KT 04/M02 A3026 RMK A01 T00351022  RH  067%=      5-min Rain = 0
KUM1 200024Z 06006KT 03/M02 A3026 RMK A01 T00341022  RH  067%=      5-min Rain = 0
KUM1 200025Z 07007KT 03/M02 A3026 RMK A01 T00321023  RH  067%=      5-min Rain = 0
KUM1 200026Z 07007KT 03/M02 A3026 RMK A01 T00311023  RH  067%=      5-min Rain = 0
KUM1 200027Z 07006KT 03/M02 A3026 RMK A01 T00311023  RH  068%=      5-min Rain = 0
KUM1 200028Z 08005KT 03/M02 A3026 RMK A01 T00311024  RH  067%=      5-min Rain = 0
KUM1 200029Z 08005KT 03/M02 A3026 RMK A01 T00321023  RH  067%=      5-min Rain = 0
KUM1 200030Z 08005KT 03/M02 A3026 RMK A01 T00321022  RH  068%=      5-min Rain = 0
KUM1 200031Z 09005KT 03/M02 A3026 RMK A01 T00321022  RH  068%=      5-min Rain = 0
KUM1 200032Z 09005KT 03/M02 A3026 RMK A01 T00311023  RH  068%=      5-min Rain = 0
KUM1 200033Z 09005KT 03/M02 A3026 RMK A01 T00311022  RH  068%=      5-min Rain = 0
KUM1 200034Z 08005KT 03/M02 A3026 RMK A01 T00311022  RH  068%=      5-min Rain = 0
KUM1 200035Z 08005KT 03/M02 A3026 RMK A01 T00321023  RH  067%=      5-min Rain = 0
KUM1 200036Z 08005KT 03/M03 A3026 RMK A01 T00321025  RH  066%=      5-min Rain = 0
KUM1 200037Z 08005KT 03/M03 A3026 RMK A01 T00331027  RH  065%=      5-min Rain = 0
KUM1 200038Z 08005KT 03/M03 A3026 RMK A01 T00341027  RH  064%=      5-min Rain = 0
KUM1 200039Z 08005KT 03/M03 A3026 RMK A01 T00341028  RH  064%=      5-min Rain = 0
KUM1 200040Z 08006KT 03/M03 A3026 RMK A01 T00321028  RH  065%=      5-min Rain = 0
KUM1 200041Z 07006KT 03/M03 A3026 RMK A01 T00311028  RH  065%=      5-min Rain = 0
KUM1 200042Z 07006KT 03/M03 A3026 RMK A01 T00301028  RH  066%=      5-min Rain = 0
KUM1 200043Z 07006KT 03/M03 A3026 RMK A01 T00291028  RH  066%=      5-min Rain = 0
KUM1 200044Z 07006KT 03/M03 A3026 RMK A01 T00271028  RH  067%=      5-min Rain = 0
KUM1 200045Z 07006KT 03/M03 A3026 RMK A01 T00261028  RH  068%=      5-min Rain = 0
KUM1 200046Z 07006KT 03/M03 A3026 RMK A01 T00251029  RH  068%=      5-min Rain = 0
KUM1 200047Z 07006KT 02/M03 A3025 RMK A01 T00241028  RH  068%=      5-min Rain = 0
KUM1 200048Z 07006KT 02/M03 A3025 RMK A01 T00221028  RH  069%=      5-min Rain = 0
KUM1 200049Z 07006KT 02/M03 A3025 RMK A01 T00221027  RH  070%=      5-min Rain = 0
KUM1 200050Z 07006KT 02/M03 A3025 RMK A01 T00221026  RH  071%=      5-min Rain = 0
KUM1 200051Z 07006KT 02/M03 A3025 RMK A01 T00221025  RH  071%=      5-min Rain = 0
KUM1 200052Z 08006KT 02/M03 A3025 RMK A01 T00231025  RH  071%=      5-min Rain = 0
KUM1 200053Z 08006KT 02/M03 A3025 RMK A01 T00241025  RH  070%=      5-min Rain = 0
KUM1 200054Z 09006KT 03/M03 A3025 RMK A01 T00261025  RH  069%=      5-min Rain = 0
KUM1 200055Z 09006KT 03/M03 A3025 RMK A01 T00271026  RH  068%=      5-min Rain = 0
KUM1 200056Z 10005KT 03/M03 A3025 RMK A01 T00261027  RH  068%=      5-min Rain = 0
KUM1 200057Z 10005KT 03/M03 A3025 RMK A01 T00251028  RH  068%=      5-min Rain = 0
KUM1 200058Z 10005KT 03/M03 A3025 RMK A01 T00251029  RH  068%=      5-min Rain = 0
KUM1 200059Z 09005KT 02/M03 A3025 RMK A01 T00221031  RH  068%=      5-min Rain = 0
KUM1 200100Z 09005KT 02/M03 A3025 RMK A01 T00201032  RH  069%=      5-min Rain = 0
KUM1 200101Z 08005KT 02/M03 A3024 RMK A01 T00211031  RH  069%=      5-min Rain = 0
KUM1 200102Z 08006KT 02/M03 A3024 RMK A01 T00231030  RH  068%=      5-min Rain = 0
KUM1 200103Z 08006KT 02/M03 A3024 RMK A01 T00241030  RH  068%=      5-min Rain = 0
KUM1 200104Z 08006KT 03/M03 A3024 RMK A01 T00251030  RH  067%=      5-min Rain = 0
KUM1 200105Z 08007KT 03/M03 A3024 RMK A01 T00251030  RH  067%=      5-min Rain = 0
KUM1 200106Z 08007KT 02/M03 A3024 RMK A01 T00241030  RH  068%=      5-min Rain = 0
KUM1 200107Z 08007KT 02/M03 A3023 RMK A01 T00221031  RH  068%=      5-min Rain = 0
KUM1 200108Z 08006KT 02/M03 A3024 RMK A01 T00201031  RH  069%=      5-min Rain = 0
KUM1 200109Z 09005KT 02/M03 A3024 RMK A01 T00201031  RH  069%=      5-min Rain = 0
KUM1 200110Z 09005KT 02/M03 A3023 RMK A01 T00201031  RH  069%=      5-min Rain = 0
KUM1 200111Z 10006KT 02/M03 A3023 RMK A01 T00201032  RH  068%=      5-min Rain = 0
KUM1 200112Z 10005KT 02/M03 A3023 RMK A01 T00191033  RH  068%=      5-min Rain = 0
KUM1 200113Z 11005KT 02/M03 A3023 RMK A01 T00181033  RH  069%=      5-min Rain = 0
KUM1 200114Z 11005KT 02/M03 A3023 RMK A01 T00181034  RH  069%=      5-min Rain = 0
KUM1 200115Z 12006KT 02/M04 A3023 RMK A01 T00151036  RH  069%=      5-min Rain = 0
KUM1 200116Z 12006KT 01/M04 A3023 RMK A01 T00111037  RH  070%=      5-min Rain = 0
KUM1 200117Z 12006KT 01/M04 A3023 RMK A01 T00081038  RH  071%=      5-min Rain = 0
KUM1 200118Z 12006KT 01/M04 A3023 RMK A01 T00061038  RH  073%=      5-min Rain = 0
KUM1 200119Z 13007KT 00/M04 A3023 RMK A01 T00041038  RH  074%=      5-min Rain = 0
KUM1 200120Z 13007KT 00/M04 A3023 RMK A01 T00021037  RH  075%=      5-min Rain = 0
KUM1 200121Z 13007KT 00/M04 A3023 RMK A01 T00011037  RH  076%=      5-min Rain = 0
KUM1 200122Z 13007KT 00/04 A3023 RMK A01 T00000-36  RH  077%=      5-min Rain = 0
KUM1 200123Z 13007KT 00/04 A3023 RMK A01 T00-00-35  RH  077%=      5-min Rain = 0
KUM1 200124Z 13007KT 00/04 A3023 RMK A01 T00-00-35  RH  078%=      5-min Rain = 0
KUM1 200125Z 13007KT 00/03 A3023 RMK A01 T00-00-34  RH  078%=      5-min Rain = 0
KUM1 200126Z 13007KT M00/M04 A3023 RMK A01 T10011035  RH  078%=      5-min Rain = 0
KUM1 200127Z 14008KT M00/M04 A3023 RMK A01 T10011035  RH  078%=      5-min Rain = 0
KUM1 200128Z 14008KT M00/M03 A3023 RMK A01 T10011034  RH  078%=      5-min Rain = 0
KUM1 200129Z 14008KT M00/M03 A3023 RMK A01 T10011034  RH  078%=      5-min Rain = 0
KUM1 200130Z 13007KT M00/M03 A3023 RMK A01 T10011034  RH  078%=      5-min Rain = 0
KUM1 200131Z 12007KT 00/03 A3023 RMK A01 T00-00-33  RH  079%=      5-min Rain = 0
KUM1 200132Z 12006KT 00/M03 A3022 RMK A01 T00031032  RH  078%=      5-min Rain = 0
KUM1 200133Z 12007KT 01/M03 A3023 RMK A01 T00071031  RH  076%=      5-min Rain = 0
KUM1 200134Z 12007KT 01/M03 A3023 RMK A01 T00101031  RH  074%=      5-min Rain = 0
KUM1 200135Z 12007KT 01/M03 A3023 RMK A01 T00111032  RH  073%=      5-min Rain = 0
KUM1 200136Z 12007KT 01/M03 A3023 RMK A01 T00101033  RH  073%=      5-min Rain = 0
KUM1 200137Z 13007KT 01/M03 A3023 RMK A01 T00081034  RH  073%=      5-min Rain = 0
KUM1 200138Z 13007KT 01/M04 A3023 RMK A01 T00061035  RH  074%=      5-min Rain = 0
KUM1 200139Z 13007KT 00/M04 A3023 RMK A01 T00041036  RH  075%=      5-min Rain = 0
KUM1 200140Z 13006KT 00/M04 A3023 RMK A01 T00021036  RH  076%=      5-min Rain = 0
KUM1 200141Z 12006KT 00/04 A3023 RMK A01 T00000-36  RH  076%=      5-min Rain = 0
KUM1 200142Z 12006KT 00/04 A3024 RMK A01 T00-00-36  RH  077%=      5-min Rain = 0
KUM1 200143Z 12006KT 00/04 A3024 RMK A01 T00-00-35  RH  077%=      5-min Rain = 0
KUM1 200144Z 13006KT 00/04 A3024 RMK A01 T00-00-35  RH  077%=      5-min Rain = 0
KUM1 200145Z 14006KT 00/04 A3024 RMK A01 T00000-35  RH  077%=      5-min Rain = 0
KUM1 200146Z 14006KT M00/M04 A3024 RMK A01 T10011036  RH  077%=      5-min Rain = 0
KUM1 200147Z 14006KT M00/M04 A3024 RMK A01 T10011036  RH  077%=      5-min Rain = 0
KUM1 200148Z 13005KT M00/M04 A3024 RMK A01 T10021036  RH  078%=      5-min Rain = 0
KUM1 200149Z 12005KT M00/M04 A3024 RMK A01 T10031037  RH  078%=      5-min Rain = 0
KUM1 200150Z 12005KT M00/M04 A3025 RMK A01 T10031036  RH  079%=      5-min Rain = 0
KUM1 200151Z 13005KT M00/M04 A3025 RMK A01 T10041036  RH  079%=      5-min Rain = 0
KUM1 200152Z 13005KT M00/M04 A3025 RMK A01 T10031036  RH  079%=      5-min Rain = 0
KUM1 200153Z 13005KT M00/M04 A3025 RMK A01 T10021035  RH  078%=      5-min Rain = 0
KUM1 200154Z 13006KT M00/M04 A3025 RMK A01 T10011035  RH  078%=      5-min Rain = 0
KUM1 200155Z 13006KT M00/M04 A3025 RMK A01 T10011036  RH  078%=      5-min Rain = 0
KUM1 200156Z 14006KT M00/M04 A3025 RMK A01 T10011035  RH  078%=      5-min Rain = 0
KUM1 200157Z 14006KT M00/M04 A3025 RMK A01 T10021036  RH  078%=      5-min Rain = 0
KUM1 200158Z 14006KT M00/M04 A3025 RMK A01 T10041037  RH  078%=      5-min Rain = 0
KUM1 200159Z 14006KT M01/M04 A3025 RMK A01 T10051038  RH  079%=      5-min Rain = 0
KUM1 200200Z 13006KT M01/M04 A3025 RMK A01 T10071038  RH  079%=      5-min Rain = 0
KUM1 200201Z 13006KT M01/M04 A3025 RMK A01 T10081038  RH  080%=      5-min Rain = 0
KUM1 200202Z 13006KT M01/M04 A3025 RMK A01 T10081037  RH  081%=      5-min Rain = 0
KUM1 200203Z 14006KT M01/M04 A3025 RMK A01 T10071036  RH  081%=      5-min Rain = 0
KUM1 200204Z 14005KT M01/M04 A3026 RMK A01 T10071036  RH  081%=      5-min Rain = 0
KUM1 200205Z 14005KT M01/M04 A3026 RMK A01 T10071037  RH  080%=      5-min Rain = 0
KUM1 200206Z 13005KT M01/M04 A3026 RMK A01 T10071037  RH  080%=      5-min Rain = 0
KUM1 200207Z 13005KT M01/M04 A3026 RMK A01 T10071037  RH  080%=      5-min Rain = 0
KUM1 200208Z 13005KT M01/M04 A3026 RMK A01 T10071038  RH  079%=      5-min Rain = 0
KUM1 200209Z 13005KT M01/M04 A3026 RMK A01 T10071038  RH  079%=      5-min Rain = 0
KUM1 200210Z 14005KT M01/M04 A3026 RMK A01 T10071037  RH  080%=      5-min Rain = 0
KUM1 200211Z 13004KT M01/M04 A3026 RMK A01 T10071037  RH  080%=      5-min Rain = 0
KUM1 200212Z 13005KT M01/M04 A3026 RMK A01 T10071038  RH  080%=      5-min Rain = 0
KUM1 200213Z 13005KT M01/M04 A3026 RMK A01 T10071037  RH  080%=      5-min Rain = 0
KUM1 200214Z 13005KT M01/M04 A3026 RMK A01 T10071037  RH  080%=      5-min Rain = 0
KUM1 200215Z 13006KT M01/M04 A3026 RMK A01 T10061037  RH  080%=      5-min Rain = 0
KUM1 200216Z 14006KT M01/M04 A3026 RMK A01 T10061038  RH  079%=      5-min Rain = 0
KUM1 200217Z 13006KT M01/M04 A3026 RMK A01 T10061038  RH  079%=      5-min Rain = 0
KUM1 200218Z 13006KT M01/M04 A3026 RMK A01 T10071039  RH  079%=      5-min Rain = 0
KUM1 200219Z 13005KT M01/M04 A3026 RMK A01 T10081039  RH  079%=      5-min Rain = 0
KUM1 200220Z 12005KT M01/M04 A3026 RMK A01 T10091039  RH  080%=      5-min Rain = 0
KUM1 200221Z 12006KT M01/M04 A3026 RMK A01 T10081038  RH  080%=      5-min Rain = 0
KUM1 200222Z 12006KT M00/M04 A3026 RMK A01 T10041037  RH  078%=      5-min Rain = 0
KUM1 200223Z 12005KT 00/04 A3026 RMK A01 T00-00-37  RH  076%=      5-min Rain = 0
KUM1 200224Z 12005KT 00/M04 A3026 RMK A01 T00021037  RH  075%=      5-min Rain = 0
KUM1 200225Z 12006KT 00/M04 A3026 RMK A01 T00031038  RH  074%=      5-min Rain = 0
KUM1 200226Z 12006KT 00/M04 A3026 RMK A01 T00031039  RH  073%=      5-min Rain = 0
KUM1 200227Z 13006KT 00/M04 A3026 RMK A01 T00041039  RH  073%=      5-min Rain = 0
KUM1 200228Z 13006KT 00/M04 A3026 RMK A01 T00021040  RH  073%=      5-min Rain = 0
KUM1 200229Z 12006KT 00/04 A3026 RMK A01 T00-00-41  RH  074%=      5-min Rain = 0
KUM1 200230Z 12005KT M00/M04 A3026 RMK A01 T10021041  RH  075%=      5-min Rain = 0
KUM1 200231Z 12005KT M00/M04 A3026 RMK A01 T10031041  RH  076%=      5-min Rain = 0
KUM1 200232Z 11005KT M00/M04 A3026 RMK A01 T10021040  RH  076%=      5-min Rain = 0
KUM1 200233Z 11005KT 00/04 A3026 RMK A01 T00000-40  RH  075%=      5-min Rain = 0
KUM1 200234Z 11005KT 00/M04 A3026 RMK A01 T00031039  RH  073%=      5-min Rain = 0
KUM1 200235Z 11005KT 01/M04 A3026 RMK A01 T00051040  RH  072%=      5-min Rain = 0
KUM1 200236Z 11005KT 01/M04 A3026 RMK A01 T00071040  RH  071%=      5-min Rain = 0
KUM1 200237Z 11006KT 01/M04 A3026 RMK A01 T00081040  RH  070%=      5-min Rain = 0
KUM1 200238Z 11006KT 01/M04 A3025 RMK A01 T00081041  RH  069%=      5-min Rain = 0
KUM1 200239Z 11006KT 01/M04 A3025 RMK A01 T00081042  RH  069%=      5-min Rain = 0
KUM1 200240Z 12006KT 01/M04 A3025 RMK A01 T00081042  RH  070%=      5-min Rain = 0
KUM1 200241Z 12006KT 01/M04 A3025 RMK A01 T00071042  RH  070%=      5-min Rain = 0
KUM1 200242Z 12006KT 00/M04 A3025 RMK A01 T00041043  RH  071%=      5-min Rain = 0
KUM1 200243Z 12006KT 00/04 A3026 RMK A01 T00000-44  RH  072%=      5-min Rain = 0
KUM1 200244Z 13005KT M00/M04 A3026 RMK A01 T10031044  RH  074%=      5-min Rain = 0
KUM1 200245Z 12005KT M00/M04 A3026 RMK A01 T10041044  RH  075%=      5-min Rain = 0
KUM1 200246Z 12006KT M01/M04 A3026 RMK A01 T10061043  RH  076%=      5-min Rain = 0
KUM1 200247Z 12006KT M01/M04 A3025 RMK A01 T10061043  RH  076%=      5-min Rain = 0
KUM1 200248Z 12006KT M01/M04 A3025 RMK A01 T10061042  RH  076%=      5-min Rain = 0
KUM1 200249Z 12006KT M00/M04 A3025 RMK A01 T10041042  RH  076%=      5-min Rain = 0
KUM1 200250Z 12006KT M00/M04 A3024 RMK A01 T10021041  RH  075%=      5-min Rain = 0
KUM1 200251Z 11006KT M00/M04 A3024 RMK A01 T10021042  RH  074%=      5-min Rain = 0
KUM1 200252Z 11006KT M00/M04 A3024 RMK A01 T10011042  RH  074%=      5-min Rain = 0
KUM1 200253Z 11007KT 00/M04 A3024 RMK A01 T00011042  RH  073%=      5-min Rain = 0
KUM1 200254Z 12007KT 00/M04 A3024 RMK A01 T00011043  RH  073%=      5-min Rain = 0
KUM1 200255Z 12007KT 00/M04 A3024 RMK A01 T00011043  RH  072%=      5-min Rain = 0
KUM1 200256Z 12008KT M00/M04 A3024 RMK A01 T10011044  RH  073%=      5-min Rain = 0
KUM1 200257Z 12008KT M00/M05 A3024 RMK A01 T10041045  RH  074%=      5-min Rain = 0
KUM1 200258Z 12008KT M01/M05 A3024 RMK A01 T10071045  RH  075%=      5-min Rain = 0
KUM1 200259Z 12007KT M01/M04 A3024 RMK A01 T10081044  RH  076%=      5-min Rain = 0
KUM1 200300Z 13007KT M01/M04 A3024 RMK A01 T10081044  RH  077%=      5-min Rain = 0
KUM1 200301Z 12006KT M01/M04 A3025 RMK A01 T10081043  RH  077%=      5-min Rain = 0
KUM1 200302Z 12006KT M01/M04 A3025 RMK A01 T10081043  RH  077%=      5-min Rain = 0
KUM1 200303Z 12006KT M01/M04 A3025 RMK A01 T10081043  RH  077%=      5-min Rain = 0
KUM1 200304Z 11006KT M01/M04 A3025 RMK A01 T10061043  RH  076%=      5-min Rain = 0
KUM1 200305Z 12006KT M00/M04 A3024 RMK A01 T10041042  RH  076%=      5-min Rain = 0
KUM1 200306Z 12006KT M00/M04 A3024 RMK A01 T10031042  RH  075%=      5-min Rain = 0
KUM1 200307Z 12006KT M00/M04 A3024 RMK A01 T10021042  RH  074%=      5-min Rain = 0
KUM1 200308Z 12006KT M00/M04 A3024 RMK A01 T10021043  RH  074%=      5-min Rain = 0
KUM1 200309Z 12006KT M00/M04 A3024 RMK A01 T10021043  RH  074%=      5-min Rain = 0
KUM1 200310Z 12006KT M00/M04 A3024 RMK A01 T10021043  RH  074%=      5-min Rain = 0
KUM1 200311Z 13007KT M00/M04 A3024 RMK A01 T10021043  RH  074%=      5-min Rain = 0
KUM1 200312Z 13008KT M00/M04 A3024 RMK A01 T10031043  RH  075%=      5-min Rain = 0
KUM1 200313Z 13008KT M01/M04 A3024 RMK A01 T10051043  RH  075%=      5-min Rain = 0
KUM1 200314Z 13007KT M01/M04 A3024 RMK A01 T10071044  RH  076%=      5-min Rain = 0
KUM1 200315Z 13007KT M01/M04 A3024 RMK A01 T10091044  RH  077%=      5-min Rain = 0
KUM1 200316Z 13007KT M01/M04 A3024 RMK A01 T10101044  RH  078%=      5-min Rain = 0
KUM1 200317Z 13007KT M01/M04 A3024 RMK A01 T10101043  RH  078%=      5-min Rain = 0
KUM1 200318Z 13007KT M01/M04 A3024 RMK A01 T10111043  RH  079%=      5-min Rain = 0
KUM1 200319Z 13007KT M01/M04 A3024 RMK A01 T10111042  RH  079%=      5-min Rain = 0
KUM1 200320Z 13007KT M01/M04 A3024 RMK A01 T10111042  RH  079%=      5-min Rain = 0
KUM1 200321Z 13007KT M01/M04 A3024 RMK A01 T10111042  RH  079%=      5-min Rain = 0
KUM1 200322Z 13006KT M01/M04 A3024 RMK A01 T10101042  RH  079%=      5-min Rain = 0
KUM1 200323Z 13007KT M01/M04 A3024 RMK A01 T10101042  RH  079%=      5-min Rain = 0
KUM1 200324Z 13007KT M01/M04 A3024 RMK A01 T10091042  RH  078%=      5-min Rain = 0
KUM1 200325Z 13007KT M01/M04 A3024 RMK A01 T10091042  RH  078%=      5-min Rain = 0
KUM1 200326Z 14006KT M01/M04 A3024 RMK A01 T10091042  RH  078%=      5-min Rain = 0
KUM1 200327Z 14006KT M01/M04 A3025 RMK A01 T10101043  RH  078%=      5-min Rain = 0
KUM1 200328Z 14006KT M01/M04 A3025 RMK A01 T10111043  RH  079%=      5-min Rain = 0
KUM1 200329Z 13006KT M01/M04 A3025 RMK A01 T10111043  RH  079%=      5-min Rain = 0
KUM1 200330Z 13006KT M01/M04 A3025 RMK A01 T10111042  RH  079%=      5-min Rain = 0
KUM1 200331Z 13006KT M01/M04 A3024 RMK A01 T10111042  RH  079%=      5-min Rain = 0
KUM1 200332Z 13007KT M01/M04 A3024 RMK A01 T10111042  RH  079%=      5-min Rain = 0
KUM1 200333Z 13007KT M01/M04 A3024 RMK A01 T10101042  RH  079%=      5-min Rain = 0
KUM1 200334Z 13007KT M01/M04 A3024 RMK A01 T10101042  RH  079%=      5-min Rain = 0
KUM1 200335Z 14008KT M01/M04 A3024 RMK A01 T10091042  RH  079%=      5-min Rain = 0
KUM1 200336Z 14009KT M01/M04 A3024 RMK A01 T10111043  RH  079%=      5-min Rain = 0
KUM1 200337Z 14008KT M01/M04 A3024 RMK A01 T10121043  RH  079%=      5-min Rain = 0
KUM1 200338Z 14008KT M01/M04 A3024 RMK A01 T10121043  RH  079%=      5-min Rain = 0
KUM1 200339Z 14008KT M01/M04 A3023 RMK A01 T10111042  RH  079%=      5-min Rain = 0
KUM1 200340Z 14008KT M01/M04 A3023 RMK A01 T10111042  RH  079%=      5-min Rain = 0
KUM1 200341Z 14008KT M01/M04 A3023 RMK A01 T10101042  RH  079%=      5-min Rain = 0
KUM1 200342Z 14008KT M01/M04 A3024 RMK A01 T10101042  RH  079%=      5-min Rain = 0
KUM1 200343Z 15008KT M01/M04 A3024 RMK A01 T10101043  RH  079%=      5-min Rain = 0
KUM1 200344Z 15008KT M01/M04 A3024 RMK A01 T10111043  RH  079%=      5-min Rain = 0
KUM1 200345Z 15007KT M01/M04 A3024 RMK A01 T10111043  RH  079%=      5-min Rain = 0
KUM1 200346Z 15008KT M01/M04 A3024 RMK A01 T10121043  RH  079%=      5-min Rain = 0
KUM1 200347Z 14008KT M01/M04 A3024 RMK A01 T10121043  RH  079%=      5-min Rain = 0
KUM1 200348Z 14008KT M01/M04 A3024 RMK A01 T10121043  RH  080%=      5-min Rain = 0
KUM1 200349Z 14007KT M01/M04 A3024 RMK A01 T10121043  RH  080%=      5-min Rain = 0
KUM1 200350Z 14007KT M01/M04 A3024 RMK A01 T10131043  RH  080%=      5-min Rain = 0
KUM1 200351Z 15007KT M01/M04 A3024 RMK A01 T10131042  RH  080%=      5-min Rain = 0
KUM1 200352Z 15008KT M01/M04 A3024 RMK A01 T10121042  RH  080%=      5-min Rain = 0
KUM1 200353Z 15008KT M01/M04 A3024 RMK A01 T10111042  RH  080%=      5-min Rain = 0
KUM1 200354Z 15008KT M01/M04 A3024 RMK A01 T10111042  RH  079%=      5-min Rain = 0
KUM1 200355Z 15008KT M01/M04 A3024 RMK A01 T10101042  RH  079%=      5-min Rain = 0
KUM1 200356Z 14007KT M01/M04 A3024 RMK A01 T10101041  RH  079%=      5-min Rain = 0
KUM1 200357Z 14007KT M01/M04 A3024 RMK A01 T10111042  RH  079%=      5-min Rain = 0
KUM1 200358Z 14007KT M01/M04 A3024 RMK A01 T10101041  RH  080%=      5-min Rain = 0
KUM1 200359Z 14008KT M01/M04 A3024 RMK A01 T10101041  RH  080%=      5-min Rain = 0
KUM1 200400Z 14008KT M01/M04 A3024 RMK A01 T10111042  RH  080%=      5-min Rain = 0
KUM1 200401Z 14007KT M01/M04 A3024 RMK A01 T10111042  RH  080%=      5-min Rain = 0
KUM1 200402Z 14007KT M01/M04 A3024 RMK A01 T10101042  RH  079%=      5-min Rain = 0
KUM1 200403Z 14007KT M01/M04 A3024 RMK A01 T10101041  RH  079%=      5-min Rain = 0
KUM1 200404Z 14007KT M01/M04 A3024 RMK A01 T10101041  RH  079%=      5-min Rain = 0
KUM1 200405Z 14007KT M01/M04 A3024 RMK A01 T10091041  RH  079%=      5-min Rain = 0
KUM1 200406Z 14007KT M01/M04 A3024 RMK A01 T10091041  RH  079%=      5-min Rain = 0
KUM1 200407Z 14007KT M01/M04 A3024 RMK A01 T10101042  RH  079%=      5-min Rain = 0
KUM1 200408Z 14007KT M01/M04 A3024 RMK A01 T10101041  RH  079%=      5-min Rain = 0
KUM1 200409Z 14007KT M01/M04 A3024 RMK A01 T10101041  RH  079%=      5-min Rain = 0
KUM1 200410Z 14007KT M01/M04 A3024 RMK A01 T10111042  RH  079%=      5-min Rain = 0
KUM1 200411Z 14008KT M01/M04 A3024 RMK A01 T10111042  RH  080%=      5-min Rain = 0
KUM1 200412Z 14007KT M01/M04 A3024 RMK A01 T10121042  RH  080%=      5-min Rain = 0
KUM1 200413Z 15007KT M01/M04 A3024 RMK A01 T10121042  RH  080%=      5-min Rain = 0
KUM1 200414Z 15007KT M01/M04 A3024 RMK A01 T10121042  RH  080%=      5-min Rain = 0
KUM1 200415Z 15007KT M01/M04 A3024 RMK A01 T10121042  RH  080%=      5-min Rain = 0
KUM1 200416Z 15007KT M01/M04 A3024 RMK A01 T10121042  RH  080%=      5-min Rain = 0
KUM1 200417Z 16007KT M01/M04 A3024 RMK A01 T10121042  RH  080%=      5-min Rain = 0
KUM1 200418Z 16007KT M01/M04 A3024 RMK A01 T10121042  RH  080%=      5-min Rain = 0
KUM1 200419Z 16007KT M01/M04 A3024 RMK A01 T10121042  RH  080%=      5-min Rain = 0
KUM1 200420Z 16007KT M01/M04 A3024 RMK A01 T10121043  RH  080%=      5-min Rain = 0
KUM1 200421Z 16007KT M01/M04 A3024 RMK A01 T10121042  RH  080%=      5-min Rain = 0
KUM1 200422Z 15007KT M01/M04 A3024 RMK A01 T10121042  RH  080%=      5-min Rain = 0
KUM1 200423Z 15007KT M01/M04 A3024 RMK A01 T10121043  RH  080%=      5-min Rain = 0
KUM1 200424Z 16007KT M01/M04 A3024 RMK A01 T10131043  RH  080%=      5-min Rain = 0
KUM1 200425Z 16007KT M01/M04 A3024 RMK A01 T10131044  RH  080%=      5-min Rain = 0
KUM1 200426Z 16007KT M01/M04 A3024 RMK A01 T10131043  RH  080%=      5-min Rain = 0
KUM1 200427Z 16007KT M01/M04 A3024 RMK A01 T10131043  RH  080%=      5-min Rain = 0
KUM1 200428Z 16008KT M01/M04 A3024 RMK A01 T10131043  RH  080%=      5-min Rain = 0
KUM1 200429Z 16007KT M01/M04 A3024 RMK A01 T10131043  RH  080%=      5-min Rain = 0
KUM1 200430Z 16007KT M01/M04 A3024 RMK A01 T10121043  RH  079%=      5-min Rain = 0
KUM1 200431Z 16007KT M01/M04 A3024 RMK A01 T10111043  RH  079%=      5-min Rain = 0
KUM1 200432Z 17007KT M01/M04 A3024 RMK A01 T10111044  RH  079%=      5-min Rain = 0
KUM1 200433Z 17007KT M01/M04 A3024 RMK A01 T10121044  RH  079%=      5-min Rain = 0
KUM1 200434Z 18007KT M01/M04 A3024 RMK A01 T10121044  RH  079%=      5-min Rain = 0
KUM1 200435Z 17007KT M01/M04 A3024 RMK A01 T10131044  RH  079%=      5-min Rain = 0
KUM1 200436Z 17008KT M01/M04 A3024 RMK A01 T10141044  RH  080%=      5-min Rain = 0
KUM1 200437Z 17009KT M02/M04 A3024 RMK A01 T10151044  RH  081%=      5-min Rain = 0
KUM1 200438Z 17009KT M02/M04 A3024 RMK A01 T10151044  RH  081%=      5-min Rain = 0
KUM1 200439Z 17008KT M01/M04 A3024 RMK A01 T10141043  RH  081%=      5-min Rain = 0
KUM1 200440Z 17009KT M01/M04 A3024 RMK A01 T10141043  RH  081%=      5-min Rain = 0
KUM1 200441Z 17009KT M01/M04 A3024 RMK A01 T10141044  RH  080%=      5-min Rain = 0
KUM1 200442Z 17008KT M01/M04 A3024 RMK A01 T10141044  RH  080%=      5-min Rain = 0
KUM1 200443Z 17008KT M01/M04 A3024 RMK A01 T10131044  RH  079%=      5-min Rain = 0
KUM1 200444Z 18008KT M01/M04 A3024 RMK A01 T10131044  RH  080%=      5-min Rain = 0
KUM1 200445Z 18007KT M01/M04 A3024 RMK A01 T10131044  RH  080%=      5-min Rain = 0
KUM1 200446Z 18007KT M01/M04 A3024 RMK A01 T10141043  RH  080%=      5-min Rain = 0
KUM1 200447Z 17008KT M01/M04 A3024 RMK A01 T10141044  RH  080%=      5-min Rain = 0
KUM1 200448Z 17008KT M01/M04 A3024 RMK A01 T10141044  RH  080%=      5-min Rain = 0
KUM1 200449Z 17008KT M01/M04 A3024 RMK A01 T10141044  RH  080%=      5-min Rain = 0
KUM1 200450Z 17007KT M01/M05 A3024 RMK A01 T10141045  RH  080%=      5-min Rain = 0
KUM1 200451Z 18007KT M01/M05 A3024 RMK A01 T10141045  RH  080%=      5-min Rain = 0
KUM1 200452Z 18006KT M01/M05 A3024 RMK A01 T10141045  RH  080%=      5-min Rain = 0
KUM1 200453Z 18005KT M02/M04 A3024 RMK A01 T10151044  RH  080%=      5-min Rain = 0
KUM1 200454Z 17006KT M02/M04 A3024 RMK A01 T10161044  RH  081%=      5-min Rain = 0
KUM1 200455Z 17006KT M02/M05 A3024 RMK A01 T10171045  RH  081%=      5-min Rain = 0
KUM1 200456Z 17006KT M02/M05 A3024 RMK A01 T10181046  RH  081%=      5-min Rain = 0
KUM1 200457Z 17007KT M02/M05 A3024 RMK A01 T10191046  RH  082%=      5-min Rain = 0
KUM1 200458Z 17007KT M02/M05 A3024 RMK A01 T10191045  RH  082%=      5-min Rain = 0
KUM1 200459Z 16007KT M02/M05 A3024 RMK A01 T10191045  RH  082%=      5-min Rain = 0
KUM1 200500Z 16007KT M02/M05 A3024 RMK A01 T10191045  RH  082%=      5-min Rain = 0
KUM1 200501Z 16007KT M02/M05 A3024 RMK A01 T10201046  RH  082%=      5-min Rain = 0
KUM1 200502Z 15006KT M02/M05 A3024 RMK A01 T10201046  RH  083%=      5-min Rain = 0
KUM1 200503Z 15006KT M02/M05 A3024 RMK A01 T10201046  RH  083%=      5-min Rain = 0
KUM1 200504Z 16006KT M02/M05 A3024 RMK A01 T10211046  RH  083%=      5-min Rain = 0
KUM1 200505Z 16006KT M02/M05 A3024 RMK A01 T10201046  RH  083%=      5-min Rain = 0
KUM1 200506Z 16006KT M02/M05 A3024 RMK A01 T10201046  RH  082%=      5-min Rain = 0
KUM1 200507Z 17006KT M02/M05 A3024 RMK A01 T10201047  RH  082%=      5-min Rain = 0
KUM1 200508Z 17006KT M02/M05 A3024 RMK A01 T10201046  RH  082%=      5-min Rain = 0
KUM1 200509Z 17006KT M02/M05 A3025 RMK A01 T10191046  RH  082%=      5-min Rain = 0
KUM1 200510Z 17006KT M02/M05 A3025 RMK A01 T10171046  RH  081%=      5-min Rain = 0
KUM1 200511Z 17005KT M02/M05 A3025 RMK A01 T10171046  RH  080%=      5-min Rain = 0
KUM1 200512Z 17005KT M02/M05 A3025 RMK A01 T10171046  RH  080%=      5-min Rain = 0
KUM1 200513Z 17005KT M02/M05 A3025 RMK A01 T10161046  RH  080%=      5-min Rain = 0
KUM1 200514Z 17006KT M02/M05 A3025 RMK A01 T10161047  RH  080%=      5-min Rain = 0
KUM1 200515Z 17006KT M02/M05 A3025 RMK A01 T10161047  RH  080%=      5-min Rain = 0
KUM1 200516Z 17006KT M02/M05 A3025 RMK A01 T10171047  RH  080%=      5-min Rain = 0
KUM1 200517Z 17006KT M02/M05 A3025 RMK A01 T10171048  RH  080%=      5-min Rain = 0
KUM1 200518Z 17006KT M02/M05 A3025 RMK A01 T10171047  RH  080%=      5-min Rain = 0
KUM1 200519Z 17006KT M02/M05 A3025 RMK A01 T10181048  RH  080%=      5-min Rain = 0
KUM1 200520Z 17006KT M02/M05 A3025 RMK A01 T10181048  RH  080%=      5-min Rain = 0
KUM1 200521Z 17006KT M02/M05 A3026 RMK A01 T10181047  RH  081%=      5-min Rain = 0
KUM1 200522Z 18006KT M02/M05 A3026 RMK A01 T10191047  RH  081%=      5-min Rain = 0
KUM1 200523Z 18006KT M02/M05 A3026 RMK A01 T10191047  RH  081%=      5-min Rain = 0
KUM1 200524Z 18005KT M02/M05 A3026 RMK A01 T10191047  RH  081%=      5-min Rain = 0
KUM1 200525Z 18005KT M02/M05 A3026 RMK A01 T10191047  RH  082%=      5-min Rain = 0
KUM1 200526Z 18005KT M02/M05 A3026 RMK A01 T10201047  RH  082%=      5-min Rain = 0
KUM1 200527Z 17006KT M02/M05 A3026 RMK A01 T10191046  RH  082%=      5-min Rain = 0
KUM1 200528Z 17005KT M02/M05 A3025 RMK A01 T10181045  RH  082%=      5-min Rain = 0
KUM1 200529Z 16006KT M02/M05 A3025 RMK A01 T10181046  RH  081%=      5-min Rain = 0
KUM1 200530Z 16006KT M02/M05 A3025 RMK A01 T10181047  RH  081%=      5-min Rain = 0
KUM1 200531Z 16006KT M02/M05 A3024 RMK A01 T10201049  RH  081%=      5-min Rain = 0
KUM1 200532Z 16007KT M02/M05 A3024 RMK A01 T10201048  RH  081%=      5-min Rain = 0
KUM1 200533Z 16007KT M02/M05 A3024 RMK A01 T10201048  RH  081%=      5-min Rain = 0
KUM1 200534Z 16007KT M02/M05 A3024 RMK A01 T10201048  RH  082%=      5-min Rain = 0
KUM1 200535Z 17007KT M02/M05 A3025 RMK A01 T10201048  RH  082%=      5-min Rain = 0
KUM1 200536Z 17006KT M02/M05 A3025 RMK A01 T10201048  RH  082%=      5-min Rain = 0
KUM1 200537Z 17006KT M02/M05 A3025 RMK A01 T10201048  RH  082%=      5-min Rain = 0
KUM1 200538Z 17006KT M02/M05 A3025 RMK A01 T10201048  RH  081%=      5-min Rain = 0
KUM1 200539Z 17005KT M02/M05 A3025 RMK A01 T10201048  RH  081%=      5-min Rain = 0
KUM1 200540Z 17005KT M02/M05 A3025 RMK A01 T10201048  RH  081%=      5-min Rain = 0
KUM1 200541Z 17005KT M02/M05 A3025 RMK A01 T10201048  RH  081%=      5-min Rain = 0
KUM1 200542Z 17005KT M02/M05 A3025 RMK A01 T10201048  RH  081%=      5-min Rain = 0
KUM1 200543Z 16005KT M02/M05 A3025 RMK A01 T10201048  RH  081%=      5-min Rain = 0
KUM1 200544Z 16005KT M02/M05 A3025 RMK A01 T10201049  RH  081%=      5-min Rain = 0
KUM1 200545Z 16005KT M02/M05 A3025 RMK A01 T10201049  RH  081%=      5-min Rain = 0
KUM1 200546Z 16006KT M02/M05 A3025 RMK A01 T10201049  RH  081%=      5-min Rain = 0
KUM1 200547Z 16006KT M02/M05 A3025 RMK A01 T10201049  RH  080%=      5-min Rain = 0
KUM1 200548Z 16006KT M02/M05 A3025 RMK A01 T10201049  RH  080%=      5-min Rain = 0
KUM1 200549Z 17006KT M02/M05 A3025 RMK A01 T10201050  RH  080%=      5-min Rain = 0
KUM1 200550Z 17006KT M02/M05 A3025 RMK A01 T10191049  RH  080%=      5-min Rain = 0
KUM1 200551Z 17006KT M02/M05 A3025 RMK A01 T10191049  RH  080%=      5-min Rain = 0
KUM1 200552Z 17007KT M02/M05 A3025 RMK A01 T10191049  RH  080%=      5-min Rain = 0
KUM1 200553Z 17007KT M02/M05 A3025 RMK A01 T10201049  RH  080%=      5-min Rain = 0
KUM1 200554Z 17007KT M02/M05 A3025 RMK A01 T10201049  RH  080%=      5-min Rain = 0
KUM1 200555Z 17008KT M02/M05 A3025 RMK A01 T10201049  RH  081%=      5-min Rain = 0
KUM1 200556Z 17008KT M02/M05 A3025 RMK A01 T10191048  RH  081%=      5-min Rain = 0
KUM1 200557Z 17008KT M02/M05 A3025 RMK A01 T10181047  RH  081%=      5-min Rain = 0
KUM1 200558Z 17008KT M02/M05 A3025 RMK A01 T10171047  RH  080%=      5-min Rain = 0
KUM1 200559Z 17008KT M02/M05 A3025 RMK A01 T10161047  RH  080%=      5-min Rain = 0

Page generated in 7.869 seconds.